Time,TemperatureF,DewpointF,PressureIn,WindDirection,WindDirectionDegrees,WindSpeedMPH,WindSpeedGustMPH,Humidity,HourlyPrecipIn,Conditions,Clouds,dailyrainin,SoftwareType,DateUTC
2013-02-02 00:00:00,15.9,11.9,30.12,SSW,200,0.0,0.0,84,0.00,,---,0.00,VWS V14.01,2013-02-02 06:00:00,
2013-02-02 00:01:00,15.9,11.9,30.12,SSW,200,0.0,0.0,84,0.00,,---,0.00,VWS V14.01,2013-02-02 06:01:00,
2013-02-02 00:02:00,15.9,11.9,30.12,SW,229,1.0,2.0,84,0.00,,---,0.00,VWS V14.01,2013-02-02 06:02:00,
2013-02-02 00:06:00,15.9,11.9,30.12,SSE,162,0.0,0.0,84,0.00,,---,0.00,VWS V14.01,2013-02-02 06:06:00,
2013-02-02 00:07:00,15.9,11.9,30.12,SSE,162,0.0,0.0,84,0.00,,---,0.00,VWS V14.01,2013-02-02 06:07:00,
2013-02-02 00:08:00,15.9,11.9,30.12,SSE,162,0.0,0.0,84,0.00,,---,0.00,VWS V14.01,2013-02-02 06:08:00,
2013-02-02 00:12:00,15.9,12.2,30.12,WSW,249,2.0,2.0,85,0.00,,---,0.00,VWS V14.01,2013-02-02 06:12:00,
2013-02-02 00:13:00,15.9,12.2,30.12,SSW,195,1.0,2.0,85,0.00,,---,0.00,VWS V14.01,2013-02-02 06:13:00,
2013-02-02 00:17:00,16.1,12.4,30.12,SSW,200,0.0,1.0,85,0.00,,---,0.00,VWS V14.01,2013-02-02 06:17:00,
2013-02-02 00:18:00,16.1,12.4,30.12,SSW,200,0.0,1.0,85,0.00,,---,0.00,VWS V14.01,2013-02-02 06:18:00,
2013-02-02 00:19:00,16.1,12.4,30.12,SSW,207,1.0,1.0,85,0.00,,---,0.00,VWS V14.01,2013-02-02 06:19:00,
2013-02-02 00:23:00,16.1,12.7,30.12,West,265,2.0,2.0,86,0.00,,---,0.00,VWS V14.01,2013-02-02 06:23:00,
2013-02-02 00:24:00,16.1,12.7,30.12,West,266,2.0,2.0,86,0.00,,---,0.00,VWS V14.01,2013-02-02 06:24:00,
2013-02-02 00:26:00,16.1,12.7,30.12,SW,235,3.0,4.0,86,0.00,,---,0.00,VWS V14.01,2013-02-02 06:26:00,
2013-02-02 00:29:00,16.2,12.8,30.11,WSW,258,0.0,2.0,86,0.00,,---,0.00,VWS V14.01,2013-02-02 06:29:00,
2013-02-02 00:30:00,16.2,12.8,30.11,WSW,258,0.0,0.0,86,0.00,,---,0.00,VWS V14.01,2013-02-02 06:30:00,
2013-02-02 00:31:00,16.2,12.8,30.11,West,279,4.0,4.0,86,0.00,,---,0.00,VWS V14.01,2013-02-02 06:31:00,
2013-02-02 00:32:00,16.2,12.8,30.11,SW,215,2.0,2.0,86,0.00,,---,0.00,VWS V14.01,2013-02-02 06:32:00,
2013-02-02 00:37:00,16.4,12.9,30.11,West,261,2.0,2.0,86,0.00,,---,0.00,VWS V14.01,2013-02-02 06:37:00,
2013-02-02 00:38:00,16.4,12.9,30.11,West,266,0.0,3.0,86,0.00,,---,0.00,VWS V14.01,2013-02-02 06:38:00,
2013-02-02 00:42:00,16.4,13.2,30.11,WSW,246,4.0,4.0,87,0.00,,---,0.00,VWS V14.01,2013-02-02 06:42:00,
2013-02-02 00:43:00,16.4,13.2,30.11,WSW,256,0.0,5.0,87,0.00,,---,0.00,VWS V14.01,2013-02-02 06:43:00,
2013-02-02 00:44:00,16.4,13.2,30.11,WSW,253,1.0,1.0,87,0.00,,---,0.00,VWS V14.01,2013-02-02 06:44:00,
2013-02-02 00:46:00,16.4,13.2,30.11,South,188,1.0,1.0,87,0.00,,---,0.00,VWS V14.01,2013-02-02 06:46:00,
2013-02-02 00:48:00,16.4,13.2,30.11,WSW,248,2.0,3.0,87,0.00,,---,0.00,VWS V14.01,2013-02-02 06:48:00,
2013-02-02 00:49:00,16.5,13.3,30.11,WSW,254,1.0,2.0,87,0.00,,---,0.00,VWS V14.01,2013-02-02 06:49:00,
2013-02-02 00:50:00,16.5,13.3,30.11,WSW,254,0.0,2.0,87,0.00,,---,0.00,VWS V14.01,2013-02-02 06:50:00,
2013-02-02 00:51:00,16.5,13.3,30.11,West,274,0.0,1.0,87,0.00,,---,0.00,VWS V14.01,2013-02-02 06:51:00,
2013-02-02 00:53:00,16.5,13.3,30.11,West,262,3.0,3.0,87,0.00,,---,0.00,VWS V14.01,2013-02-02 06:53:00,
2013-02-02 00:54:00,16.5,13.3,30.11,SE,144,0.0,0.0,87,0.00,,---,0.00,VWS V14.01,2013-02-02 06:54:00,
2013-02-02 00:56:00,16.5,13.3,30.11,SW,222,0.0,4.0,87,0.00,,---,0.00,VWS V14.01,2013-02-02 06:56:00,
2013-02-02 00:57:00,16.5,13.3,30.11,WSW,255,2.0,2.0,87,0.00,,---,0.00,VWS V14.01,2013-02-02 06:57:00,
2013-02-02 00:58:00,16.5,13.3,30.11,WSW,245,0.0,3.0,87,0.00,,---,0.00,VWS V14.01,2013-02-02 06:58:00,
2013-02-02 01:01:00,16.5,13.3,30.10,SSW,197,0.0,1.0,87,0.00,,---,0.00,VWS V14.01,2013-02-02 07:01:00,
2013-02-02 01:02:00,16.5,13.6,30.10,SSW,197,0.0,1.0,88,0.00,,---,0.00,VWS V14.01,2013-02-02 07:02:00,
2013-02-02 01:03:00,16.5,13.3,30.10,SW,225,1.0,1.0,87,0.00,,---,0.00,VWS V14.01,2013-02-02 07:03:00,
2013-02-02 01:06:00,16.5,13.6,30.10,West,264,2.0,3.0,88,0.00,,---,0.00,VWS V14.01,2013-02-02 07:06:00,
2013-02-02 01:08:00,16.5,13.6,30.10,West,274,2.0,3.0,88,0.00,,---,0.00,VWS V14.01,2013-02-02 07:08:00,
2013-02-02 01:09:00,16.5,13.6,30.10,West,274,0.0,1.0,88,0.00,,---,0.00,VWS V14.01,2013-02-02 07:09:00,
2013-02-02 01:12:00,16.5,13.6,30.10,WNW,287,1.0,2.0,88,0.00,,---,0.00,VWS V14.01,2013-02-02 07:12:00,
2013-02-02 01:13:00,16.5,13.6,30.10,WSW,247,1.0,3.0,88,0.00,,---,0.00,VWS V14.01,2013-02-02 07:13:00,
2013-02-02 01:14:00,16.5,13.6,30.09,West,272,1.0,2.0,88,0.00,,---,0.00,VWS V14.01,2013-02-02 07:14:00,
2013-02-02 01:18:00,16.5,13.6,30.09,ESE,119,2.0,2.0,88,0.00,,---,0.00,VWS V14.01,2013-02-02 07:18:00,
2013-02-02 01:19:00,16.7,13.8,30.09,South,191,1.0,2.0,88,0.00,,---,0.00,VWS V14.01,2013-02-02 07:19:00,
2013-02-02 01:20:00,16.7,13.8,30.09,SSW,203,0.0,1.0,88,0.00,,---,0.00,VWS V14.01,2013-02-02 07:20:00,
2013-02-02 01:22:00,16.7,13.8,30.09,SSW,203,0.0,0.0,88,0.00,,---,0.00,VWS V14.01,2013-02-02 07:22:00,
2013-02-02 01:24:00,16.7,13.8,30.09,SW,233,0.0,1.0,88,0.00,,---,0.00,VWS V14.01,2013-02-02 07:24:00,
2013-02-02 01:25:00,16.7,13.8,30.09,SW,233,2.0,2.0,88,0.00,,---,0.00,VWS V14.01,2013-02-02 07:25:00,
2013-02-02 01:29:00,16.7,13.8,30.09,South,186,1.0,4.0,88,0.00,,---,0.00,VWS V14.01,2013-02-02 07:29:00,
2013-02-02 01:30:00,16.7,13.8,30.09,SW,232,2.0,4.0,88,0.00,,---,0.00,VWS V14.01,2013-02-02 07:30:00,
2013-02-02 01:31:00,16.7,13.8,30.09,South,181,0.0,3.0,88,0.00,,---,0.00,VWS V14.01,2013-02-02 07:31:00,
2013-02-02 01:33:00,16.7,13.8,30.09,WSW,251,1.0,3.0,88,0.00,,---,0.00,VWS V14.01,2013-02-02 07:33:00,
2013-02-02 01:35:00,16.7,13.8,30.09,WSW,245,0.0,2.0,88,0.00,,---,0.00,VWS V14.01,2013-02-02 07:35:00,
2013-02-02 01:36:00,16.7,13.8,30.09,WSW,247,2.0,4.0,88,0.00,,---,0.00,VWS V14.01,2013-02-02 07:36:00,
2013-02-02 01:37:00,16.7,13.8,30.09,SSW,192,3.0,4.0,88,0.00,,---,0.00,VWS V14.01,2013-02-02 07:37:00,
2013-02-02 01:39:00,16.9,14.2,30.09,West,265,0.0,2.0,89,0.00,,---,0.00,VWS V14.01,2013-02-02 07:39:00,
2013-02-02 01:41:00,16.9,14.2,30.09,SW,226,1.0,1.0,89,0.00,,---,0.00,VWS V14.01,2013-02-02 07:41:00,
2013-02-02 01:42:00,16.9,14.2,30.09,SW,236,3.0,4.0,89,0.00,,---,0.00,VWS V14.01,2013-02-02 07:42:00,
2013-02-02 01:44:00,16.9,14.2,30.08,West,259,1.0,4.0,89,0.00,,---,0.00,VWS V14.01,2013-02-02 07:44:00,
2013-02-02 01:46:00,16.9,14.2,30.08,SSW,204,0.0,1.0,89,0.00,,---,0.00,VWS V14.01,2013-02-02 07:46:00,
2013-02-02 01:47:00,16.9,14.2,30.08,SSW,204,0.0,1.0,89,0.00,,---,0.00,VWS V14.01,2013-02-02 07:47:00,
2013-02-02 01:50:00,16.9,14.2,30.08,SSW,193,1.0,2.0,89,0.00,,---,0.00,VWS V14.01,2013-02-02 07:50:00,
2013-02-02 01:52:00,16.9,14.2,30.08,SSW,207,2.0,2.0,89,0.00,,---,0.00,VWS V14.01,2013-02-02 07:52:00,
2013-02-02 01:53:00,16.9,14.2,30.08,SSW,201,1.0,3.0,89,0.00,,---,0.00,VWS V14.01,2013-02-02 07:53:00,
2013-02-02 01:57:00,16.9,14.2,30.08,SW,233,1.0,1.0,89,0.00,,---,0.00,VWS V14.01,2013-02-02 07:57:00,
2013-02-02 01:58:00,16.9,14.2,30.08,SE,140,1.0,2.0,89,0.00,,---,0.00,VWS V14.01,2013-02-02 07:58:00,
2013-02-02 02:00:00,16.9,14.2,30.07,SSW,205,2.0,2.0,89,0.00,,---,0.00,VWS V14.01,2013-02-02 08:00:00,
2013-02-02 02:05:00,16.9,14.2,30.07,SW,217,1.0,1.0,89,0.00,,---,0.00,VWS V14.01,2013-02-02 08:05:00,
2013-02-02 02:06:00,16.9,14.2,30.07,ESE,111,0.0,1.0,89,0.00,,---,0.00,VWS V14.01,2013-02-02 08:06:00,
2013-02-02 02:07:00,16.9,14.2,30.07,South,184,0.0,2.0,89,0.00,,---,0.00,VWS V14.01,2013-02-02 08:07:00,
2013-02-02 02:11:00,16.9,14.2,30.07,SW,229,1.0,3.0,89,0.00,,---,0.00,VWS V14.01,2013-02-02 08:11:00,
2013-02-02 02:12:00,17.0,14.3,30.07,SE,129,5.0,5.0,89,0.00,,---,0.00,VWS V14.01,2013-02-02 08:12:00,
2013-02-02 02:13:00,17.0,14.3,30.07,SW,234,2.0,7.0,89,0.00,,---,0.00,VWS V14.01,2013-02-02 08:13:00,
2013-02-02 02:14:00,17.0,14.3,30.07,WSW,239,0.0,2.0,89,0.00,,---,0.00,VWS V14.01,2013-02-02 08:14:00,
2013-02-02 02:17:00,17.0,14.3,30.07,SSW,192,1.0,1.0,89,0.00,,---,0.00,VWS V14.01,2013-02-02 08:17:00,
2013-02-02 02:19:00,17.0,14.3,30.07,SW,220,2.0,2.0,89,0.00,,---,0.00,VWS V14.01,2013-02-02 08:19:00,
2013-02-02 02:20:00,17.0,14.3,30.07,South,181,0.0,3.0,89,0.00,,---,0.00,VWS V14.01,2013-02-02 08:20:00,
2013-02-02 02:23:00,17.0,14.3,30.07,East,90,0.0,2.0,89,0.00,,---,0.00,VWS V14.01,2013-02-02 08:23:00,
2013-02-02 02:25:00,17.2,14.5,30.07,SW,215,0.0,1.0,89,0.00,,---,0.00,VWS V14.01,2013-02-02 08:25:00,
2013-02-02 02:26:00,17.2,14.5,30.07,South,172,0.0,0.0,89,0.00,,---,0.00,VWS V14.01,2013-02-02 08:26:00,
2013-02-02 02:28:00,17.2,14.5,30.07,South,176,0.0,5.0,89,0.00,,---,0.00,VWS V14.01,2013-02-02 08:28:00,
2013-02-02 02:30:00,17.2,14.5,30.05,SSE,158,0.0,2.0,89,0.00,,---,0.00,VWS V14.01,2013-02-02 08:30:00,
2013-02-02 02:32:00,17.2,14.5,30.05,South,179,0.0,0.0,89,0.00,,---,0.00,VWS V14.01,2013-02-02 08:32:00,
2013-02-02 02:34:00,17.2,14.5,30.05,SSE,167,1.0,2.0,89,0.00,,---,0.00,VWS V14.01,2013-02-02 08:34:00,
2013-02-02 02:36:00,17.2,14.5,30.05,SSE,150,0.0,2.0,89,0.00,,---,0.00,VWS V14.01,2013-02-02 08:36:00,
2013-02-02 02:37:00,17.2,14.5,30.05,SE,125,0.0,2.0,89,0.00,,---,0.00,VWS V14.01,2013-02-02 08:37:00,
2013-02-02 02:38:00,17.2,14.5,30.05,SSW,195,1.0,3.0,89,0.00,,---,0.00,VWS V14.01,2013-02-02 08:38:00,
2013-02-02 02:42:00,17.2,14.5,30.05,SW,216,3.0,3.0,89,0.00,,---,0.00,VWS V14.01,2013-02-02 08:42:00,
2013-02-02 02:43:00,17.2,14.8,30.05,SSW,197,0.0,3.0,90,0.00,,---,0.00,VWS V14.01,2013-02-02 08:43:00,
2013-02-02 02:44:00,17.2,14.8,30.04,SSW,196,0.0,0.0,90,0.00,,---,0.00,VWS V14.01,2013-02-02 08:44:00,
2013-02-02 02:48:00,17.3,14.9,30.04,South,180,0.0,1.0,90,0.00,,---,0.00,VWS V14.01,2013-02-02 08:48:00,
2013-02-02 02:49:00,17.3,14.9,30.04,SE,134,0.0,1.0,90,0.00,,---,0.00,VWS V14.01,2013-02-02 08:49:00,
2013-02-02 02:50:00,17.3,14.9,30.04,SSW,212,2.0,5.0,90,0.00,,---,0.00,VWS V14.01,2013-02-02 08:50:00,
2013-02-02 02:53:00,17.3,14.9,30.04,SE,134,0.0,0.0,90,0.00,,---,0.00,VWS V14.01,2013-02-02 08:53:00,
2013-02-02 02:55:00,17.5,15.1,30.04,SE,125,0.0,1.0,90,0.00,,---,0.00,VWS V14.01,2013-02-02 08:55:00,
2013-02-02 02:58:00,17.5,15.1,30.04,WSW,257,3.0,4.0,90,0.00,,---,0.00,VWS V14.01,2013-02-02 08:58:00,
2013-02-02 02:59:00,17.5,15.1,30.03,South,170,0.0,1.0,90,0.00,,---,0.00,VWS V14.01,2013-02-02 08:59:00,
2013-02-02 03:00:00,17.5,15.1,30.03,SSE,165,2.0,2.0,90,0.00,,---,0.00,VWS V14.01,2013-02-02 09:00:00,
2013-02-02 03:01:00,17.5,15.1,30.03,ESE,123,2.0,3.0,90,0.00,,---,0.00,VWS V14.01,2013-02-02 09:01:00,
2013-02-02 03:03:00,17.5,15.1,30.03,SW,233,2.0,2.0,90,0.00,,---,0.00,VWS V14.01,2013-02-02 09:03:00,
2013-02-02 03:05:00,17.7,15.3,30.03,SW,223,0.0,1.0,90,0.00,,---,0.00,VWS V14.01,2013-02-02 09:05:00,
2013-02-02 03:06:00,17.7,15.3,30.03,SW,214,2.0,2.0,90,0.00,,---,0.00,VWS V14.01,2013-02-02 09:06:00,
2013-02-02 03:08:00,17.7,15.3,30.03,SE,141,0.0,1.0,90,0.00,,---,0.00,VWS V14.01,2013-02-02 09:08:00,
2013-02-02 03:09:00,17.7,15.3,30.03,SSW,203,2.0,2.0,90,0.00,,---,0.00,VWS V14.01,2013-02-02 09:09:00,
2013-02-02 03:10:00,17.7,15.3,30.03,SSW,207,1.0,1.0,90,0.00,,---,0.00,VWS V14.01,2013-02-02 09:10:00,
2013-02-02 03:12:00,17.7,15.3,30.03,South,175,1.0,7.0,90,0.00,,---,0.00,VWS V14.01,2013-02-02 09:12:00,
2013-02-02 03:14:00,17.7,15.3,30.01,South,176,5.0,10.0,90,0.00,,---,0.00,VWS V14.01,2013-02-02 09:14:00,
2013-02-02 03:15:00,17.8,15.4,30.01,West,273,9.0,10.0,90,0.00,,---,0.00,VWS V14.01,2013-02-02 09:15:00,
2013-02-02 03:16:00,17.8,15.4,30.01,SSW,210,1.0,9.0,90,0.00,,---,0.00,VWS V14.01,2013-02-02 09:16:00,
2013-02-02 03:18:00,17.8,15.4,30.01,SW,219,4.0,10.0,90,0.00,,---,0.00,VWS V14.01,2013-02-02 09:18:00,
2013-02-02 03:20:00,18.0,15.3,30.01,SW,218,1.0,2.0,89,0.00,,---,0.00,VWS V14.01,2013-02-02 09:20:00,
2013-02-02 03:22:00,18.0,15.3,30.01,West,270,2.0,4.0,89,0.00,,---,0.00,VWS V14.01,2013-02-02 09:22:00,
2013-02-02 03:23:00,18.0,15.3,30.01,East,79,1.0,3.0,89,0.00,,---,0.00,VWS V14.01,2013-02-02 09:23:00,
2013-02-02 03:25:00,18.0,15.3,30.01,South,186,1.0,2.0,89,0.00,,---,0.00,VWS V14.01,2013-02-02 09:25:00,
2013-02-02 03:26:00,18.0,15.3,30.01,South,187,1.0,2.0,89,0.00,,---,0.00,VWS V14.01,2013-02-02 09:26:00,
2013-02-02 03:28:00,18.0,15.3,30.01,SSW,198,2.0,4.0,89,0.00,,---,0.00,VWS V14.01,2013-02-02 09:28:00,
2013-02-02 03:30:00,18.0,15.3,30.01,South,186,1.0,2.0,89,0.00,,---,0.00,VWS V14.01,2013-02-02 09:30:00,
2013-02-02 03:33:00,18.0,15.3,30.01,WSW,252,3.0,4.0,89,0.00,,---,0.00,VWS V14.01,2013-02-02 09:33:00,
2013-02-02 03:35:00,18.0,15.3,30.01,WSW,247,1.0,3.0,89,0.00,,---,0.00,VWS V14.01,2013-02-02 09:35:00,
2013-02-02 03:36:00,18.0,15.3,30.01,SSW,193,4.0,4.0,89,0.00,,---,0.00,VWS V14.01,2013-02-02 09:36:00,
2013-02-02 03:38:00,18.0,15.3,30.01,SSW,201,3.0,3.0,89,0.00,,---,0.00,VWS V14.01,2013-02-02 09:38:00,
2013-02-02 03:39:00,18.0,15.3,30.01,South,178,4.0,4.0,89,0.00,,---,0.00,VWS V14.01,2013-02-02 09:39:00,
2013-02-02 03:41:00,18.0,15.3,30.01,WNW,294,0.0,2.0,89,0.00,,---,0.00,VWS V14.01,2013-02-02 09:41:00,
2013-02-02 03:44:00,18.0,15.3,30.00,SSW,205,2.0,2.0,89,0.00,,---,0.00,VWS V14.01,2013-02-02 09:44:00,
2013-02-02 03:45:00,18.0,15.3,30.00,South,177,0.0,4.0,89,0.00,,---,0.00,VWS V14.01,2013-02-02 09:45:00,
2013-02-02 03:46:00,18.0,15.3,30.00,WSW,246,2.0,2.0,89,0.00,,---,0.00,VWS V14.01,2013-02-02 09:46:00,
2013-02-02 03:48:00,18.0,15.3,30.00,WSW,244,1.0,2.0,89,0.00,,---,0.00,VWS V14.01,2013-02-02 09:48:00,
2013-02-02 03:50:00,18.0,15.3,30.00,West,266,3.0,3.0,89,0.00,,---,0.00,VWS V14.01,2013-02-02 09:50:00,
2013-02-02 03:51:00,18.0,15.3,30.00,SSW,205,2.0,3.0,89,0.00,,---,0.00,VWS V14.01,2013-02-02 09:51:00,
2013-02-02 03:52:00,18.0,15.3,30.00,WSW,249,0.0,2.0,89,0.00,,---,0.00,VWS V14.01,2013-02-02 09:52:00,
2013-02-02 03:54:00,18.1,15.4,30.00,WSW,251,1.0,3.0,89,0.00,,---,0.00,VWS V14.01,2013-02-02 09:54:00,
2013-02-02 03:56:00,18.1,15.4,30.00,WSW,246,2.0,3.0,89,0.00,,---,0.00,VWS V14.01,2013-02-02 09:56:00,
2013-02-02 03:57:00,18.1,15.4,30.00,WNW,285,1.0,3.0,89,0.00,,---,0.00,VWS V14.01,2013-02-02 09:57:00,
2013-02-02 04:00:00,18.1,15.4,30.00,SW,217,0.0,3.0,89,0.00,,---,0.00,VWS V14.01,2013-02-02 10:00:00,
2013-02-02 04:01:00,18.1,15.4,30.00,South,191,1.0,4.0,89,0.00,,---,0.00,VWS V14.01,2013-02-02 10:01:00,
2013-02-02 04:03:00,18.1,15.4,30.00,ESE,115,1.0,1.0,89,0.00,,---,0.00,VWS V14.01,2013-02-02 10:03:00,
2013-02-02 04:06:00,18.1,15.4,30.00,SSW,205,1.0,1.0,89,0.00,,---,0.00,VWS V14.01,2013-02-02 10:06:00,
2013-02-02 04:08:00,18.3,15.6,30.00,West,279,2.0,2.0,89,0.00,,---,0.00,VWS V14.01,2013-02-02 10:08:00,
2013-02-02 04:12:00,18.3,15.6,30.00,West,260,3.0,4.0,89,0.00,,---,0.00,VWS V14.01,2013-02-02 10:12:00,
2013-02-02 04:13:00,18.3,15.6,30.00,WSW,253,0.0,1.0,89,0.00,,---,0.00,VWS V14.01,2013-02-02 10:13:00,
2013-02-02 04:16:00,18.3,15.6,29.99,West,259,1.0,4.0,89,0.00,,---,0.00,VWS V14.01,2013-02-02 10:16:00,
2013-02-02 04:18:00,18.4,15.7,29.99,West,268,1.0,3.0,89,0.00,,---,0.00,VWS V14.01,2013-02-02 10:18:00,
2013-02-02 04:19:00,18.4,15.7,29.99,West,266,0.0,1.0,89,0.00,,---,0.00,VWS V14.01,2013-02-02 10:19:00,
2013-02-02 04:20:00,18.4,15.7,29.99,South,187,0.0,3.0,89,0.00,,---,0.00,VWS V14.01,2013-02-02 10:20:00,
2013-02-02 04:21:00,18.4,15.7,29.99,West,264,2.0,2.0,89,0.00,,---,0.00,VWS V14.01,2013-02-02 10:21:00,
2013-02-02 04:24:00,18.4,15.7,29.99,West,259,1.0,2.0,89,0.00,,---,0.00,VWS V14.01,2013-02-02 10:24:00,
2013-02-02 04:25:00,18.4,15.7,29.99,South,174,0.0,3.0,89,0.00,,---,0.00,VWS V14.01,2013-02-02 10:25:00,
2013-02-02 04:28:00,18.4,15.7,29.99,SSW,201,0.0,1.0,89,0.00,,---,0.00,VWS V14.01,2013-02-02 10:28:00,
2013-02-02 04:30:00,18.4,15.7,29.99,SW,217,2.0,3.0,89,0.00,,---,0.00,VWS V14.01,2013-02-02 10:30:00,
2013-02-02 04:31:00,18.4,15.7,29.99,SSW,207,4.0,6.0,89,0.00,,---,0.00,VWS V14.01,2013-02-02 10:31:00,
2013-02-02 04:36:00,18.6,15.9,29.99,SSW,199,1.0,5.0,89,0.00,,---,0.00,VWS V14.01,2013-02-02 10:36:00,
2013-02-02 04:38:00,18.6,15.9,29.99,SSE,160,0.0,1.0,89,0.00,,---,0.00,VWS V14.01,2013-02-02 10:38:00,
2013-02-02 04:41:00,18.6,15.9,29.99,SW,219,2.0,4.0,89,0.00,,---,0.00,VWS V14.01,2013-02-02 10:41:00,
2013-02-02 04:43:00,18.6,15.9,29.99,WSW,252,4.0,9.0,89,0.00,,---,0.00,VWS V14.01,2013-02-02 10:43:00,
2013-02-02 04:44:00,18.6,15.9,29.99,SE,131,1.0,5.0,89,0.00,,---,0.00,VWS V14.01,2013-02-02 10:44:00,
2013-02-02 04:48:00,18.8,16.1,29.99,South,187,0.0,4.0,89,0.00,,---,0.00,VWS V14.01,2013-02-02 10:48:00,
2013-02-02 04:49:00,18.8,16.1,29.99,SW,223,3.0,4.0,89,0.00,,---,0.00,VWS V14.01,2013-02-02 10:49:00,
2013-02-02 04:50:00,18.8,16.1,29.99,SSW,210,1.0,2.0,89,0.00,,---,0.00,VWS V14.01,2013-02-02 10:50:00,
2013-02-02 04:54:00,18.8,16.1,29.99,SW,236,2.0,3.0,89,0.00,,---,0.00,VWS V14.01,2013-02-02 10:54:00,
2013-02-02 04:55:00,18.8,16.1,29.99,WSW,248,1.0,3.0,89,0.00,,---,0.00,VWS V14.01,2013-02-02 10:55:00,
2013-02-02 04:56:00,18.8,16.1,29.99,SSE,159,3.0,3.0,89,0.00,,---,0.00,VWS V14.01,2013-02-02 10:56:00,
2013-02-02 04:57:00,18.9,16.2,29.99,WSW,243,1.0,1.0,89,0.00,,---,0.00,VWS V14.01,2013-02-02 10:57:00,
2013-02-02 05:00:00,18.9,16.2,29.98,WSW,253,1.0,2.0,89,0.00,,---,0.00,VWS V14.01,2013-02-02 11:00:00,
2013-02-02 05:01:00,18.9,16.2,29.98,WNW,296,7.0,7.0,89,0.00,,---,0.00,VWS V14.01,2013-02-02 11:01:00,
2013-02-02 05:02:00,18.9,16.2,29.98,South,191,5.0,7.0,89,0.00,,---,0.00,VWS V14.01,2013-02-02 11:02:00,
2013-02-02 05:03:00,18.9,16.2,29.98,WSW,241,0.0,5.0,89,0.00,,---,0.00,VWS V14.01,2013-02-02 11:03:00,
2013-02-02 05:05:00,18.9,16.2,29.98,SW,231,0.0,3.0,89,0.00,,---,0.00,VWS V14.01,2013-02-02 11:05:00,
2013-02-02 05:07:00,18.9,16.2,29.98,North,355,2.0,3.0,89,0.00,,---,0.00,VWS V14.01,2013-02-02 11:07:00,
2013-02-02 05:09:00,19.1,16.4,29.98,South,181,1.0,2.0,89,0.00,,---,0.00,VWS V14.01,2013-02-02 11:09:00,
2013-02-02 05:10:00,19.1,16.4,29.98,West,266,3.0,5.0,89,0.00,,---,0.00,VWS V14.01,2013-02-02 11:10:00,
2013-02-02 05:12:00,19.1,16.4,29.98,SW,218,1.0,3.0,89,0.00,,---,0.00,VWS V14.01,2013-02-02 11:12:00,
2013-02-02 05:13:00,19.1,16.4,29.98,SSW,205,1.0,2.0,89,0.00,,---,0.00,VWS V14.01,2013-02-02 11:13:00,
2013-02-02 05:15:00,19.1,16.4,29.98,South,176,0.0,4.0,89,0.00,,---,0.00,VWS V14.01,2013-02-02 11:15:00,
2013-02-02 05:17:00,19.1,16.4,29.98,SSW,212,1.0,5.0,89,0.00,,---,0.00,VWS V14.01,2013-02-02 11:17:00,
2013-02-02 05:19:00,19.1,16.4,29.98,SSW,193,4.0,8.0,89,0.00,,---,0.00,VWS V14.01,2013-02-02 11:19:00,
2013-02-02 05:21:00,19.1,16.4,29.98,WSW,240,2.0,2.0,89,0.00,,---,0.00,VWS V14.01,2013-02-02 11:21:00,
2013-02-02 05:23:00,19.1,16.4,29.98,WSW,253,1.0,4.0,89,0.00,,---,0.00,VWS V14.01,2013-02-02 11:23:00,
2013-02-02 05:24:00,19.1,16.4,29.98,SW,214,2.0,4.0,89,0.00,,---,0.00,VWS V14.01,2013-02-02 11:24:00,
2013-02-02 05:26:00,19.1,16.4,29.98,WSW,243,0.0,5.0,89,0.00,,---,0.00,VWS V14.01,2013-02-02 11:26:00,
2013-02-02 05:28:00,19.1,16.4,29.98,West,259,6.0,6.0,89,0.00,,---,0.00,VWS V14.01,2013-02-02 11:28:00,
2013-02-02 05:29:00,19.1,16.4,29.98,WSW,256,0.0,2.0,89,0.00,,---,0.00,VWS V14.01,2013-02-02 11:29:00,
2013-02-02 05:33:00,19.2,16.8,29.98,SSW,210,3.0,3.0,90,0.00,,---,0.00,VWS V14.01,2013-02-02 11:33:00,
2013-02-02 05:34:00,19.2,16.8,29.98,South,178,4.0,5.0,90,0.00,,---,0.00,VWS V14.01,2013-02-02 11:34:00,
2013-02-02 05:38:00,19.2,16.8,29.98,South,189,0.0,4.0,90,0.00,,---,0.00,VWS V14.01,2013-02-02 11:38:00,
2013-02-02 05:39:00,19.2,16.8,29.98,South,173,3.0,5.0,90,0.00,,---,0.00,VWS V14.01,2013-02-02 11:39:00,
2013-02-02 05:40:00,19.2,16.8,29.98,SSW,195,3.0,4.0,90,0.00,,---,0.00,VWS V14.01,2013-02-02 11:40:00,
2013-02-02 05:44:00,19.2,16.8,29.97,SW,224,2.0,6.0,90,0.00,,---,0.00,VWS V14.01,2013-02-02 11:44:00,
2013-02-02 05:45:00,19.2,16.8,29.97,West,261,8.0,10.0,90,0.00,,---,0.00,VWS V14.01,2013-02-02 11:45:00,
2013-02-02 05:47:00,19.2,16.8,29.97,SW,230,2.0,5.0,90,0.00,,---,0.00,VWS V14.01,2013-02-02 11:47:00,
2013-02-02 05:49:00,19.2,16.8,29.97,South,171,2.0,3.0,90,0.00,,---,0.00,VWS V14.01,2013-02-02 11:49:00,
2013-02-02 05:50:00,19.2,16.8,29.97,South,191,1.0,2.0,90,0.00,,---,0.00,VWS V14.01,2013-02-02 11:50:00,
2013-02-02 05:55:00,19.4,17.2,29.97,West,281,2.0,7.0,91,0.00,,---,0.00,VWS V14.01,2013-02-02 11:55:00,
2013-02-02 05:57:00,19.4,17.2,29.97,West,280,0.0,2.0,91,0.00,,---,0.00,VWS V14.01,2013-02-02 11:57:00,
2013-02-02 05:58:00,19.4,17.2,29.96,SW,229,4.0,4.0,91,0.00,,---,0.00,VWS V14.01,2013-02-02 11:58:00,
2013-02-02 06:01:00,19.4,17.2,29.96,SW,222,2.0,2.0,91,0.00,,---,0.00,VWS V14.01,2013-02-02 12:01:00,
2013-02-02 06:02:00,19.4,17.2,29.96,South,180,0.0,3.0,91,0.00,,---,0.00,VWS V14.01,2013-02-02 12:02:00,
2013-02-02 06:05:00,19.4,17.2,29.96,SSE,149,0.0,3.0,91,0.00,,---,0.00,VWS V14.01,2013-02-02 12:05:00,
2013-02-02 06:08:00,19.4,17.2,29.96,South,179,1.0,5.0,91,0.00,,---,0.00,VWS V14.01,2013-02-02 12:08:00,
2013-02-02 06:09:00,19.4,17.2,29.96,SW,236,2.0,6.0,91,0.00,,---,0.00,VWS V14.01,2013-02-02 12:09:00,
2013-02-02 06:10:00,19.4,17.2,29.96,WSW,248,2.0,4.0,91,0.00,,---,0.00,VWS V14.01,2013-02-02 12:10:00,
2013-02-02 06:11:00,19.4,17.2,29.96,SSW,193,4.0,4.0,91,0.00,,---,0.00,VWS V14.01,2013-02-02 12:11:00,
2013-02-02 06:13:00,19.4,17.2,29.96,SW,234,1.0,2.0,91,0.00,,---,0.00,VWS V14.01,2013-02-02 12:13:00,
2013-02-02 06:14:00,19.4,17.2,29.96,SW,234,0.0,1.0,91,0.00,,---,0.00,VWS V14.01,2013-02-02 12:14:00,
2013-02-02 06:15:00,19.4,17.2,29.96,SW,234,3.0,4.0,91,0.00,,---,0.00,VWS V14.01,2013-02-02 12:15:00,
2013-02-02 06:17:00,19.4,17.2,29.96,South,187,2.0,2.0,91,0.00,,---,0.00,VWS V14.01,2013-02-02 12:17:00,
2013-02-02 06:18:00,19.4,17.2,29.96,South,187,0.0,2.0,91,0.00,,---,0.00,VWS V14.01,2013-02-02 12:18:00,
2013-02-02 06:19:00,19.4,17.2,29.96,South,189,1.0,1.0,91,0.00,,---,0.00,VWS V14.01,2013-02-02 12:19:00,
2013-02-02 06:22:00,19.4,17.2,29.96,WSW,254,0.0,2.0,91,0.00,,---,0.00,VWS V14.01,2013-02-02 12:22:00,
2013-02-02 06:23:00,19.4,17.2,29.96,WSW,254,1.0,2.0,91,0.00,,---,0.00,VWS V14.01,2013-02-02 12:23:00,
2013-02-02 06:24:00,19.4,17.2,29.96,SSE,148,0.0,2.0,91,0.00,,---,0.00,VWS V14.01,2013-02-02 12:24:00,
2013-02-02 06:25:00,19.4,17.2,29.96,SSW,193,2.0,2.0,91,0.00,,---,0.00,VWS V14.01,2013-02-02 12:25:00,
2013-02-02 06:28:00,19.4,17.2,29.96,SSW,203,0.0,1.0,91,0.00,,---,0.00,VWS V14.01,2013-02-02 12:28:00,
2013-02-02 06:29:00,19.4,17.2,29.96,West,264,2.0,3.0,91,0.00,,---,0.00,VWS V14.01,2013-02-02 12:29:00,
2013-02-02 06:32:00,19.4,17.2,29.96,WSW,249,2.0,3.0,91,0.00,,---,0.00,VWS V14.01,2013-02-02 12:32:00,
2013-02-02 06:34:00,19.4,17.2,29.96,West,271,0.0,2.0,91,0.00,,---,0.00,VWS V14.01,2013-02-02 12:34:00,
2013-02-02 06:36:00,19.4,17.2,29.96,South,176,1.0,1.0,91,0.00,,---,0.00,VWS V14.01,2013-02-02 12:36:00,
2013-02-02 06:37:00,19.4,17.2,29.96,SSE,158,0.0,0.0,91,0.00,,---,0.00,VWS V14.01,2013-02-02 12:37:00,
2013-02-02 06:39:00,19.4,17.2,29.96,WSW,240,2.0,3.0,91,0.00,,---,0.00,VWS V14.01,2013-02-02 12:39:00,
2013-02-02 06:41:00,19.4,17.2,29.96,West,266,3.0,4.0,91,0.00,,---,0.00,VWS V14.01,2013-02-02 12:41:00,
2013-02-02 06:43:00,19.4,17.2,29.96,West,264,0.0,1.0,91,0.00,,---,0.00,VWS V14.01,2013-02-02 12:43:00,
2013-02-02 06:44:00,19.4,17.2,29.95,West,266,4.0,7.0,91,0.00,,---,0.00,VWS V14.01,2013-02-02 12:44:00,
2013-02-02 06:48:00,19.4,17.2,29.95,SW,220,0.0,1.0,91,0.00,,---,0.00,VWS V14.01,2013-02-02 12:48:00,
2013-02-02 06:50:00,19.4,17.2,29.95,SW,220,0.0,0.0,91,0.00,,---,0.00,VWS V14.01,2013-02-02 12:50:00,
2013-02-02 06:53:00,19.4,17.2,29.95,WSW,255,3.0,3.0,91,0.00,,---,0.00,VWS V14.01,2013-02-02 12:53:00,
2013-02-02 06:54:00,19.4,17.2,29.95,SSW,207,3.0,4.0,91,0.00,,---,0.00,VWS V14.01,2013-02-02 12:54:00,
2013-02-02 06:55:00,19.4,17.2,29.95,West,264,0.0,2.0,91,0.00,,---,0.00,VWS V14.01,2013-02-02 12:55:00,
2013-02-02 06:56:00,19.5,17.6,29.95,SSW,207,2.0,2.0,92,0.00,,---,0.00,VWS V14.01,2013-02-02 12:56:00,
2013-02-02 06:58:00,19.5,17.6,29.95,WSW,257,4.0,4.0,92,0.00,,---,0.00,VWS V14.01,2013-02-02 12:58:00,
2013-02-02 07:00:00,19.5,17.3,29.95,WSW,239,1.0,1.0,91,0.00,,---,0.00,VWS V14.01,2013-02-02 13:00:00,
2013-02-02 07:02:00,19.5,17.6,29.95,SW,233,0.0,2.0,92,0.00,,---,0.00,VWS V14.01,2013-02-02 13:02:00,
2013-02-02 07:04:00,19.5,17.6,29.95,WSW,240,2.0,2.0,92,0.00,,---,0.00,VWS V14.01,2013-02-02 13:04:00,
2013-02-02 07:05:00,19.7,17.8,29.95,West,268,0.0,4.0,92,0.00,,---,0.00,VWS V14.01,2013-02-02 13:05:00,
2013-02-02 07:07:00,19.7,17.8,29.95,SW,233,2.0,5.0,92,0.00,,---,0.00,VWS V14.01,2013-02-02 13:07:00,
2013-02-02 07:08:00,19.7,17.8,29.95,WSW,257,2.0,3.0,92,0.00,,---,0.00,VWS V14.01,2013-02-02 13:08:00,
2013-02-02 07:10:00,19.7,17.8,29.95,SW,226,3.0,4.0,92,0.00,,---,0.00,VWS V14.01,2013-02-02 13:10:00,
2013-02-02 07:13:00,19.7,17.8,29.95,WSW,248,2.0,5.0,92,0.00,,---,0.00,VWS V14.01,2013-02-02 13:13:00,
2013-02-02 07:15:00,19.9,18.0,29.95,West,269,2.0,4.0,92,0.00,,---,0.00,VWS V14.01,2013-02-02 13:15:00,
2013-02-02 07:18:00,19.9,18.0,29.95,SW,217,2.0,3.0,92,0.00,,---,0.00,VWS V14.01,2013-02-02 13:18:00,
2013-02-02 07:19:00,19.9,18.0,29.95,South,173,0.0,9.0,92,0.00,,---,0.00,VWS V14.01,2013-02-02 13:19:00,
2013-02-02 07:20:00,19.9,18.0,29.95,West,274,3.0,3.0,92,0.00,,---,0.00,VWS V14.01,2013-02-02 13:20:00,
2013-02-02 07:21:00,20.0,18.0,29.95,WSW,246,1.0,3.0,92,0.00,,---,0.00,VWS V14.01,2013-02-02 13:21:00,
2013-02-02 07:23:00,20.0,18.0,29.95,WSW,258,1.0,2.0,92,0.00,,---,0.00,VWS V14.01,2013-02-02 13:23:00,
2013-02-02 07:25:00,20.0,18.0,29.95,WSW,245,2.0,5.0,92,0.00,,---,0.00,VWS V14.01,2013-02-02 13:25:00,
2013-02-02 07:27:00,20.2,18.2,29.95,West,264,1.0,3.0,92,0.00,,---,0.00,VWS V14.01,2013-02-02 13:27:00,
2013-02-02 07:29:00,20.2,18.2,29.95,SW,224,2.0,2.0,92,0.00,,---,0.00,VWS V14.01,2013-02-02 13:29:00,
2013-02-02 07:30:00,20.2,18.2,29.95,SW,233,1.0,5.0,92,0.00,,---,0.00,VWS V14.01,2013-02-02 13:30:00,
2013-02-02 07:32:00,20.2,18.2,29.95,WSW,244,1.0,1.0,92,0.00,,---,0.00,VWS V14.01,2013-02-02 13:32:00,
2013-02-02 07:33:00,20.2,18.2,29.95,West,265,5.0,5.0,92,0.00,,---,0.00,VWS V14.01,2013-02-02 13:33:00,
2013-02-02 07:36:00,20.3,18.4,29.95,SSW,205,1.0,4.0,92,0.00,,---,0.00,VWS V14.01,2013-02-02 13:36:00,
2013-02-02 07:37:00,20.3,18.4,29.95,WSW,257,2.0,2.0,92,0.00,,---,0.00,VWS V14.01,2013-02-02 13:37:00,
2013-02-02 07:38:00,20.3,18.4,29.95,SW,231,1.0,2.0,92,0.00,,---,0.00,VWS V14.01,2013-02-02 13:38:00,
2013-02-02 07:40:00,20.3,18.4,29.95,West,266,3.0,3.0,92,0.00,,---,0.00,VWS V14.01,2013-02-02 13:40:00,
2013-02-02 07:42:00,20.3,18.4,29.95,SSE,168,1.0,4.0,92,0.00,,---,0.00,VWS V14.01,2013-02-02 13:42:00,
2013-02-02 07:43:00,20.5,18.5,29.95,West,262,1.0,2.0,92,0.00,,---,0.00,VWS V14.01,2013-02-02 13:43:00,
2013-02-02 07:45:00,20.5,18.5,29.95,WSW,250,0.0,3.0,92,0.00,,---,0.00,VWS V14.01,2013-02-02 13:45:00,
2013-02-02 07:46:00,20.5,18.5,29.95,WSW,253,2.0,4.0,92,0.00,,---,0.00,VWS V14.01,2013-02-02 13:46:00,
2013-02-02 07:48:00,20.5,18.5,29.95,WSW,257,0.0,2.0,92,0.00,,---,0.00,VWS V14.01,2013-02-02 13:48:00,
2013-02-02 07:49:00,20.5,18.5,29.95,WSW,253,3.0,5.0,92,0.00,,---,0.00,VWS V14.01,2013-02-02 13:49:00,
2013-02-02 07:50:00,20.5,18.5,29.95,SSW,204,3.0,3.0,92,0.00,,---,0.00,VWS V14.01,2013-02-02 13:50:00,
2013-02-02 07:51:00,20.5,18.5,29.95,WSW,251,2.0,2.0,92,0.00,,---,0.00,VWS V14.01,2013-02-02 13:51:00,
2013-02-02 07:53:00,20.5,18.5,29.95,West,264,2.0,2.0,92,0.00,,---,0.00,VWS V14.01,2013-02-02 13:53:00,
2013-02-02 07:54:00,20.6,18.6,29.95,WSW,250,0.0,2.0,92,0.00,,---,0.00,VWS V14.01,2013-02-02 13:54:00,
2013-02-02 07:57:00,20.6,18.6,29.95,WSW,240,1.0,3.0,92,0.00,,---,0.00,VWS V14.01,2013-02-02 13:57:00,
2013-02-02 07:58:00,20.6,18.6,29.95,SW,236,2.0,2.0,92,0.00,,---,0.00,VWS V14.01,2013-02-02 13:58:00,
2013-02-02 07:59:00,20.6,18.6,29.95,SSW,210,0.0,5.0,92,0.00,,---,0.00,VWS V14.01,2013-02-02 13:59:00,
2013-02-02 08:02:00,20.6,18.6,29.95,SSW,203,2.0,2.0,92,0.00,,---,0.00,VWS V14.01,2013-02-02 14:02:00,
2013-02-02 08:04:00,20.6,18.6,29.95,WSW,240,0.0,3.0,92,0.00,,---,0.00,VWS V14.01,2013-02-02 14:04:00,
2013-02-02 08:05:00,20.6,18.6,29.95,West,280,1.0,3.0,92,0.00,,---,0.00,VWS V14.01,2013-02-02 14:05:00,
2013-02-02 08:07:00,20.8,18.9,29.95,SW,219,1.0,2.0,92,0.00,,---,0.00,VWS V14.01,2013-02-02 14:07:00,
2013-02-02 08:09:00,20.8,18.9,29.95,SW,221,2.0,4.0,92,0.00,,---,0.00,VWS V14.01,2013-02-02 14:09:00,
2013-02-02 08:11:00,20.8,18.9,29.95,WSW,250,1.0,2.0,92,0.00,,---,0.00,VWS V14.01,2013-02-02 14:11:00,
2013-02-02 08:13:00,20.8,18.9,29.95,SW,219,0.0,2.0,92,0.00,,---,0.00,VWS V14.01,2013-02-02 14:13:00,
2013-02-02 08:15:00,20.8,18.9,29.94,SW,216,0.0,2.0,92,0.00,,---,0.00,VWS V14.01,2013-02-02 14:15:00,
2013-02-02 08:16:00,21.0,19.0,29.94,WSW,241,0.0,1.0,92,0.00,,---,0.00,VWS V14.01,2013-02-02 14:16:00,
2013-02-02 08:17:00,21.0,19.0,29.94,West,260,1.0,1.0,92,0.00,,---,0.00,VWS V14.01,2013-02-02 14:17:00,
2013-02-02 08:21:00,21.0,19.0,29.94,WSW,238,2.0,3.0,92,0.00,,---,0.00,VWS V14.01,2013-02-02 14:21:00,
2013-02-02 08:22:00,21.0,19.0,29.94,SW,235,1.0,1.0,92,0.00,,---,0.00,VWS V14.01,2013-02-02 14:22:00,
2013-02-02 08:26:00,21.0,19.0,29.94,West,266,0.0,0.0,92,0.00,,---,0.00,VWS V14.01,2013-02-02 14:26:00,
2013-02-02 08:27:00,21.0,19.0,29.94,SSW,206,0.0,1.0,92,0.00,,---,0.00,VWS V14.01,2013-02-02 14:27:00,
2013-02-02 08:28:00,21.0,19.0,29.94,SSW,206,0.0,0.0,92,0.00,,---,0.00,VWS V14.01,2013-02-02 14:28:00,
2013-02-02 08:32:00,21.1,19.1,29.94,West,270,1.0,3.0,92,0.00,,---,0.00,VWS V14.01,2013-02-02 14:32:00,
2013-02-02 08:34:00,21.1,19.1,29.94,West,267,2.0,4.0,92,0.00,,---,0.00,VWS V14.01,2013-02-02 14:34:00,
2013-02-02 08:35:00,21.1,19.1,29.94,SW,215,0.0,4.0,92,0.00,,---,0.00,VWS V14.01,2013-02-02 14:35:00,
2013-02-02 08:37:00,21.1,19.1,29.94,SW,233,3.0,3.0,92,0.00,,---,0.00,VWS V14.01,2013-02-02 14:37:00,
2013-02-02 08:40:00,21.1,19.1,29.94,SW,225,0.0,3.0,92,0.00,,---,0.00,VWS V14.01,2013-02-02 14:40:00,
2013-02-02 08:42:00,21.1,19.1,29.94,West,259,1.0,3.0,92,0.00,,---,0.00,VWS V14.01,2013-02-02 14:42:00,
2013-02-02 08:43:00,21.1,19.1,29.94,West,262,0.0,1.0,92,0.00,,---,0.00,VWS V14.01,2013-02-02 14:43:00,
2013-02-02 08:44:00,21.3,19.3,29.94,WSW,250,3.0,3.0,92,0.00,,---,0.00,VWS V14.01,2013-02-02 14:44:00,
2013-02-02 08:46:00,21.3,19.3,29.94,WSW,252,2.0,2.0,92,0.00,,---,0.00,VWS V14.01,2013-02-02 14:46:00,
2013-02-02 08:48:00,21.3,19.3,29.94,West,262,0.0,2.0,92,0.00,,---,0.00,VWS V14.01,2013-02-02 14:48:00,
2013-02-02 08:49:00,21.3,19.1,29.94,WSW,253,0.0,1.0,91,0.00,,---,0.00,VWS V14.01,2013-02-02 14:49:00,
2013-02-02 08:51:00,21.4,19.2,29.94,West,260,2.0,2.0,91,0.00,,---,0.00,VWS V14.01,2013-02-02 14:51:00,
2013-02-02 08:53:00,21.4,19.2,29.94,West,268,2.0,2.0,91,0.00,,---,0.00,VWS V14.01,2013-02-02 14:53:00,
2013-02-02 08:56:00,21.4,19.2,29.94,WSW,241,2.0,2.0,91,0.00,,---,0.00,VWS V14.01,2013-02-02 14:56:00,
2013-02-02 08:57:00,21.4,19.2,29.94,WNW,289,1.0,2.0,91,0.00,,---,0.00,VWS V14.01,2013-02-02 14:57:00,
2013-02-02 08:59:00,21.6,19.4,29.94,WSW,252,1.0,1.0,91,0.00,,---,0.00,VWS V14.01,2013-02-02 14:59:00,
2013-02-02 09:01:00,21.6,19.4,29.94,West,269,2.0,5.0,91,0.00,,---,0.00,VWS V14.01,2013-02-02 15:01:00,
2013-02-02 09:02:00,21.6,19.4,29.94,SSE,165,0.0,1.0,91,0.00,,---,0.00,VWS V14.01,2013-02-02 15:02:00,
2013-02-02 09:03:00,21.6,19.4,29.94,SSE,165,0.0,0.0,91,0.00,,---,0.00,VWS V14.01,2013-02-02 15:03:00,
2013-02-02 09:05:00,21.6,19.4,29.94,South,176,1.0,1.0,91,0.00,,---,0.00,VWS V14.01,2013-02-02 15:05:00,
2013-02-02 09:08:00,21.6,19.4,29.94,West,270,1.0,3.0,91,0.00,,---,0.00,VWS V14.01,2013-02-02 15:08:00,
2013-02-02 09:09:00,21.8,19.6,29.94,SW,233,1.0,3.0,91,0.00,,---,0.00,VWS V14.01,2013-02-02 15:09:00,
2013-02-02 09:11:00,21.8,19.6,29.94,WSW,243,2.0,3.0,91,0.00,,---,0.00,VWS V14.01,2013-02-02 15:11:00,
2013-02-02 09:13:00,21.8,19.6,29.94,WSW,237,0.0,0.0,91,0.00,,---,0.00,VWS V14.01,2013-02-02 15:13:00,
2013-02-02 09:14:00,21.8,19.6,29.93,SSW,198,1.0,3.0,91,0.00,,---,0.00,VWS V14.01,2013-02-02 15:14:00,
2013-02-02 09:15:00,21.8,19.6,29.93,SSW,198,2.0,2.0,91,0.00,,---,0.00,VWS V14.01,2013-02-02 15:15:00,
2013-02-02 09:16:00,21.9,19.7,29.93,WSW,245,1.0,2.0,91,0.00,,---,0.00,VWS V14.01,2013-02-02 15:16:00,
2013-02-02 09:19:00,21.9,19.7,29.93,West,267,2.0,3.0,91,0.00,,---,0.00,VWS V14.01,2013-02-02 15:19:00,
2013-02-02 09:20:00,21.9,19.7,29.93,SW,217,1.0,3.0,91,0.00,,---,0.00,VWS V14.01,2013-02-02 15:20:00,
2013-02-02 09:21:00,21.9,19.7,29.93,WSW,243,2.0,2.0,91,0.00,,---,0.00,VWS V14.01,2013-02-02 15:21:00,
2013-02-02 09:22:00,21.9,19.7,29.93,SW,221,1.0,4.0,91,0.00,,---,0.00,VWS V14.01,2013-02-02 15:22:00,
2013-02-02 09:25:00,22.1,19.9,29.93,WSW,240,0.0,3.0,91,0.00,,---,0.00,VWS V14.01,2013-02-02 15:25:00,
2013-02-02 09:26:00,22.1,19.9,29.93,SW,233,0.0,1.0,91,0.00,,---,0.00,VWS V14.01,2013-02-02 15:26:00,
2013-02-02 09:27:00,22.1,19.9,29.93,SW,226,2.0,4.0,91,0.00,,---,0.00,VWS V14.01,2013-02-02 15:27:00,
2013-02-02 09:30:00,22.1,19.9,29.93,West,279,2.0,3.0,91,0.00,,---,0.00,VWS V14.01,2013-02-02 15:30:00,
2013-02-02 09:32:00,22.2,20.0,29.93,West,272,2.0,2.0,91,0.00,,---,0.00,VWS V14.01,2013-02-02 15:32:00,
2013-02-02 09:33:00,22.2,20.0,29.93,West,272,0.0,2.0,91,0.00,,---,0.00,VWS V14.01,2013-02-02 15:33:00,
2013-02-02 09:36:00,22.2,20.0,29.93,WSW,247,4.0,4.0,91,0.00,,---,0.00,VWS V14.01,2013-02-02 15:36:00,
2013-02-02 09:38:00,22.4,20.2,29.93,SSW,212,1.0,3.0,91,0.00,,---,0.00,VWS V14.01,2013-02-02 15:38:00,
2013-02-02 09:41:00,22.4,20.2,29.93,SSE,168,2.0,4.0,91,0.00,,---,0.00,VWS V14.01,2013-02-02 15:41:00,
2013-02-02 09:43:00,22.4,20.2,29.93,West,279,1.0,1.0,91,0.00,,---,0.00,VWS V14.01,2013-02-02 15:43:00,
2013-02-02 09:44:00,22.4,20.2,29.92,West,275,2.0,5.0,91,0.00,,---,0.00,VWS V14.01,2013-02-02 15:44:00,
2013-02-02 09:45:00,22.5,20.3,29.92,SW,235,0.0,3.0,91,0.00,,---,0.00,VWS V14.01,2013-02-02 15:45:00,
2013-02-02 09:47:00,22.5,20.3,29.92,SSW,200,1.0,1.0,91,0.00,,---,0.00,VWS V14.01,2013-02-02 15:47:00,
2013-02-02 09:49:00,22.7,20.5,29.92,WSW,253,1.0,3.0,91,0.00,,---,0.00,VWS V14.01,2013-02-02 15:49:00,
2013-02-02 09:50:00,22.7,20.5,29.92,SW,219,1.0,2.0,91,0.00,,---,0.00,VWS V14.01,2013-02-02 15:50:00,
2013-02-02 09:52:00,22.7,20.5,29.92,West,280,2.0,3.0,91,0.00,,---,0.00,VWS V14.01,2013-02-02 15:52:00,
2013-02-02 09:56:00,22.7,20.5,29.92,West,259,0.0,3.0,91,0.00,,---,0.00,VWS V14.01,2013-02-02 15:56:00,
2013-02-02 09:57:00,22.9,20.7,29.92,SSW,212,4.0,4.0,91,0.00,,---,0.00,VWS V14.01,2013-02-02 15:57:00,
2013-02-02 09:58:00,22.9,20.7,29.92,WSW,248,1.0,4.0,91,0.00,,---,0.00,VWS V14.01,2013-02-02 15:58:00,
2013-02-02 09:59:00,22.9,20.7,29.92,WSW,248,0.0,1.0,91,0.00,,---,0.00,VWS V14.01,2013-02-02 15:59:00,
2013-02-02 10:01:00,23.0,20.8,29.92,West,272,2.0,4.0,91,0.00,,---,0.00,VWS V14.01,2013-02-02 16:01:00,
2013-02-02 10:02:00,23.0,20.8,29.92,West,268,3.0,3.0,91,0.00,,---,0.00,VWS V14.01,2013-02-02 16:02:00,
2013-02-02 10:03:00,23.0,20.8,29.92,WSW,252,3.0,3.0,91,0.00,,---,0.00,VWS V14.01,2013-02-02 16:03:00,
2013-02-02 10:05:00,23.0,20.8,29.92,West,262,2.0,2.0,91,0.00,,---,0.00,VWS V14.01,2013-02-02 16:05:00,
2013-02-02 10:07:00,23.0,20.8,29.92,SSW,210,2.0,4.0,91,0.00,,---,0.00,VWS V14.01,2013-02-02 16:07:00,
2013-02-02 10:08:00,23.0,20.8,29.92,WSW,242,2.0,3.0,91,0.00,,---,0.00,VWS V14.01,2013-02-02 16:08:00,
2013-02-02 10:10:00,23.0,20.5,29.92,WSW,255,0.0,1.0,90,0.00,,---,0.00,VWS V14.01,2013-02-02 16:10:00,
2013-02-02 10:12:00,23.0,20.8,29.92,WSW,253,1.0,2.0,91,0.00,,---,0.00,VWS V14.01,2013-02-02 16:12:00,
2013-02-02 10:13:00,23.0,20.8,29.92,WSW,252,0.0,0.0,91,0.00,,---,0.00,VWS V14.01,2013-02-02 16:13:00,
2013-02-02 10:15:00,23.2,21.0,29.92,SW,226,0.0,1.0,91,0.00,,---,0.00,VWS V14.01,2013-02-02 16:15:00,
2013-02-02 10:16:00,23.2,21.0,29.92,SW,226,0.0,1.0,91,0.00,,---,0.00,VWS V14.01,2013-02-02 16:16:00,
2013-02-02 10:17:00,23.2,21.0,29.92,NNW,344,2.0,2.0,91,0.00,,---,0.00,VWS V14.01,2013-02-02 16:17:00,
2013-02-02 10:19:00,23.2,21.0,29.92,WNW,285,1.0,2.0,91,0.00,,---,0.00,VWS V14.01,2013-02-02 16:19:00,
2013-02-02 10:21:00,23.2,21.0,29.92,SSE,167,0.0,1.0,91,0.00,,---,0.00,VWS V14.01,2013-02-02 16:21:00,
2013-02-02 10:23:00,23.2,21.0,29.92,SW,229,1.0,2.0,91,0.00,,---,0.00,VWS V14.01,2013-02-02 16:23:00,
2013-02-02 10:24:00,23.3,21.1,29.92,WSW,243,2.0,3.0,91,0.00,,---,0.00,VWS V14.01,2013-02-02 16:24:00,
2013-02-02 10:25:00,23.3,21.1,29.92,West,271,1.0,3.0,91,0.00,,---,0.00,VWS V14.01,2013-02-02 16:25:00,
2013-02-02 10:27:00,23.3,21.1,29.92,West,260,1.0,2.0,91,0.00,,---,0.00,VWS V14.01,2013-02-02 16:27:00,
2013-02-02 10:29:00,23.3,21.1,29.93,West,270,0.0,0.0,91,0.00,,---,0.00,VWS V14.01,2013-02-02 16:29:00,
2013-02-02 10:30:00,23.5,21.3,29.93,SSW,205,2.0,2.0,91,0.00,,---,0.00,VWS V14.01,2013-02-02 16:30:00,
2013-02-02 10:31:00,23.5,21.3,29.93,WNW,299,2.0,2.0,91,0.00,,---,0.00,VWS V14.01,2013-02-02 16:31:00,
2013-02-02 10:33:00,23.5,21.3,29.93,West,268,0.0,3.0,91,0.00,,---,0.00,VWS V14.01,2013-02-02 16:33:00,
2013-02-02 10:34:00,23.5,21.3,29.93,West,267,1.0,1.0,91,0.00,,---,0.00,VWS V14.01,2013-02-02 16:34:00,
2013-02-02 10:36:00,23.5,21.3,29.93,WSW,241,1.0,3.0,91,0.00,,---,0.00,VWS V14.01,2013-02-02 16:36:00,
2013-02-02 10:37:00,23.5,21.3,29.93,WSW,244,0.0,1.0,91,0.00,,---,0.00,VWS V14.01,2013-02-02 16:37:00,
2013-02-02 10:40:00,23.6,21.4,29.93,West,268,1.0,2.0,91,0.00,,---,0.00,VWS V14.01,2013-02-02 16:40:00,
2013-02-02 10:41:00,23.6,21.4,29.93,West,268,0.0,2.0,91,0.00,,---,0.00,VWS V14.01,2013-02-02 16:41:00,
2013-02-02 10:42:00,23.6,21.4,29.93,West,271,1.0,1.0,91,0.00,,---,0.00,VWS V14.01,2013-02-02 16:42:00,
2013-02-02 10:45:00,23.6,21.4,29.92,West,259,3.0,3.0,91,0.00,,---,0.00,VWS V14.01,2013-02-02 16:45:00,
2013-02-02 10:47:00,23.6,21.4,29.92,WSW,250,1.0,3.0,91,0.00,,---,0.00,VWS V14.01,2013-02-02 16:47:00,
2013-02-02 10:51:00,23.6,21.4,29.92,NW,325,2.0,4.0,91,0.00,,---,0.00,VWS V14.01,2013-02-02 16:51:00,
2013-02-02 10:52:00,23.8,21.6,29.92,WSW,255,2.0,2.0,91,0.00,,---,0.00,VWS V14.01,2013-02-02 16:52:00,
2013-02-02 10:53:00,23.8,21.6,29.92,West,264,2.0,2.0,91,0.00,,---,0.00,VWS V14.01,2013-02-02 16:53:00,
2013-02-02 10:56:00,23.8,21.6,29.92,West,274,0.0,1.0,91,0.00,,---,0.00,VWS V14.01,2013-02-02 16:56:00,
2013-02-02 10:58:00,23.9,21.7,29.92,West,274,0.0,0.0,91,0.00,,---,0.00,VWS V14.01,2013-02-02 16:58:00,
2013-02-02 11:00:00,23.9,21.7,29.92,WNW,286,1.0,2.0,91,0.00,,---,0.00,VWS V14.01,2013-02-02 17:00:00,
2013-02-02 11:02:00,24.1,21.9,29.92,West,280,1.0,2.0,91,0.00,,---,0.00,VWS V14.01,2013-02-02 17:02:00,
2013-02-02 11:03:00,24.2,22.0,29.92,WNW,293,2.0,2.0,91,0.00,,---,0.00,VWS V14.01,2013-02-02 17:03:00,
2013-02-02 11:06:00,24.2,22.0,29.92,NW,319,2.0,2.0,91,0.00,,---,0.00,VWS V14.01,2013-02-02 17:06:00,
2013-02-02 11:07:00,24.2,22.0,29.92,NW,319,1.0,2.0,91,0.00,,---,0.00,VWS V14.01,2013-02-02 17:07:00,
2013-02-02 11:09:00,24.2,21.7,29.92,NNW,332,2.0,3.0,90,0.00,,---,0.00,VWS V14.01,2013-02-02 17:09:00,
2013-02-02 11:12:00,24.2,22.0,29.92,West,271,1.0,1.0,91,0.00,,---,0.00,VWS V14.01,2013-02-02 17:12:00,
2013-02-02 11:14:00,24.4,21.9,29.91,NNW,339,3.0,3.0,90,0.00,,---,0.00,VWS V14.01,2013-02-02 17:14:00,
2013-02-02 11:17:00,24.4,21.9,29.91,NNW,339,2.0,2.0,90,0.00,,---,0.00,VWS V14.01,2013-02-02 17:17:00,
2013-02-02 11:18:00,24.4,21.9,29.91,NW,309,2.0,4.0,90,0.00,,---,0.00,VWS V14.01,2013-02-02 17:18:00,
2013-02-02 11:19:00,24.4,21.9,29.91,WNW,297,2.0,3.0,90,0.00,,---,0.00,VWS V14.01,2013-02-02 17:19:00,
2013-02-02 11:24:00,24.2,21.7,29.91,NW,316,0.0,0.0,90,0.00,,---,0.00,VWS V14.01,2013-02-02 17:24:00,
2013-02-02 11:25:00,24.2,21.7,29.91,NW,316,0.0,1.0,90,0.00,,---,0.00,VWS V14.01,2013-02-02 17:25:00,
2013-02-02 11:29:00,24.4,21.9,29.91,West,274,0.0,2.0,90,0.00,,---,0.00,VWS V14.01,2013-02-02 17:29:00,
2013-02-02 11:30:00,24.4,21.9,29.91,West,274,2.0,2.0,90,0.00,,---,0.00,VWS V14.01,2013-02-02 17:30:00,
2013-02-02 11:32:00,24.4,21.9,29.91,NW,313,3.0,5.0,90,0.00,,---,0.00,VWS V14.01,2013-02-02 17:32:00,
2013-02-02 11:35:00,24.4,21.9,29.91,NW,326,2.0,4.0,90,0.00,,---,0.00,VWS V14.01,2013-02-02 17:35:00,
2013-02-02 11:36:00,24.4,21.6,29.91,NW,326,0.0,2.0,89,0.00,,---,0.00,VWS V14.01,2013-02-02 17:36:00,
2013-02-02 11:37:00,24.4,21.9,29.91,West,262,1.0,1.0,90,0.00,,---,0.00,VWS V14.01,2013-02-02 17:37:00,
2013-02-02 11:38:00,24.2,21.7,29.91,WNW,285,2.0,2.0,90,0.00,,---,0.00,VWS V14.01,2013-02-02 17:38:00,
2013-02-02 11:40:00,24.2,21.7,29.91,West,264,1.0,2.0,90,0.00,,---,0.00,VWS V14.01,2013-02-02 17:40:00,
2013-02-02 11:42:00,24.2,21.4,29.91,WSW,252,3.0,5.0,89,0.00,,---,0.00,VWS V14.01,2013-02-02 17:42:00,
2013-02-02 11:43:00,24.2,21.4,29.91,WNW,282,1.0,4.0,89,0.00,,---,0.00,VWS V14.01,2013-02-02 17:43:00,
2013-02-02 11:47:00,24.2,21.4,29.91,WNW,288,2.0,2.0,89,0.00,,---,0.00,VWS V14.01,2013-02-02 17:47:00,
2013-02-02 11:48:00,24.4,21.6,29.91,WNW,303,3.0,3.0,89,0.00,,---,0.00,VWS V14.01,2013-02-02 17:48:00,
2013-02-02 11:52:00,24.2,21.4,29.91,NNW,333,1.0,2.0,89,0.00,,---,0.00,VWS V14.01,2013-02-02 17:52:00,
2013-02-02 11:53:00,24.2,21.4,29.91,NW,313,1.0,3.0,89,0.00,,---,0.00,VWS V14.01,2013-02-02 17:53:00,
2013-02-02 11:54:00,24.2,21.4,29.91,NW,313,1.0,2.0,89,0.00,,---,0.00,VWS V14.01,2013-02-02 17:54:00,
2013-02-02 11:58:00,24.2,21.4,29.91,NW,316,3.0,3.0,89,0.00,,---,0.00,VWS V14.01,2013-02-02 17:58:00,
2013-02-02 11:59:00,24.2,21.4,29.90,NW,308,2.0,2.0,89,0.00,,---,0.00,VWS V14.01,2013-02-02 17:59:00,
2013-02-02 12:03:00,24.2,21.4,29.90,WNW,287,2.0,2.0,89,0.00,,---,0.00,VWS V14.01,2013-02-02 18:03:00,
2013-02-02 12:05:00,24.2,21.4,29.90,WNW,300,0.0,2.0,89,0.00,,---,0.00,VWS V14.01,2013-02-02 18:05:00,
2013-02-02 12:06:00,24.2,21.4,29.90,WNW,300,2.0,3.0,89,0.00,,---,0.00,VWS V14.01,2013-02-02 18:06:00,
2013-02-02 12:09:00,24.4,21.6,29.90,WNW,302,2.0,2.0,89,0.00,,---,0.00,VWS V14.01,2013-02-02 18:09:00,
2013-02-02 12:10:00,24.4,21.6,29.90,WNW,299,3.0,3.0,89,0.00,,---,0.00,VWS V14.01,2013-02-02 18:10:00,
2013-02-02 12:11:00,24.5,21.7,29.90,WNW,289,2.0,3.0,89,0.00,,---,0.00,VWS V14.01,2013-02-02 18:11:00,
2013-02-02 12:15:00,24.5,21.7,29.89,West,262,2.0,2.0,89,0.00,,---,0.00,VWS V14.01,2013-02-02 18:15:00,
2013-02-02 12:16:00,24.5,21.7,29.89,West,262,2.0,2.0,89,0.00,,---,0.00,VWS V14.01,2013-02-02 18:16:00,
2013-02-02 12:18:00,24.7,21.9,29.89,West,262,0.0,1.0,89,0.00,,---,0.00,VWS V14.01,2013-02-02 18:18:00,
2013-02-02 12:21:00,24.8,22.0,29.89,NW,319,3.0,3.0,89,0.00,,---,0.00,VWS V14.01,2013-02-02 18:21:00,
2013-02-02 12:22:00,24.8,21.8,29.89,NW,318,1.0,2.0,88,0.00,,---,0.00,VWS V14.01,2013-02-02 18:22:00,
2013-02-02 12:23:00,24.8,21.8,29.89,NW,318,1.0,2.0,88,0.00,,---,0.00,VWS V14.01,2013-02-02 18:23:00,
2013-02-02 12:26:00,25.0,22.0,29.89,West,266,2.0,3.0,88,0.00,,---,0.00,VWS V14.01,2013-02-02 18:26:00,
2013-02-02 12:27:00,25.0,22.0,29.89,SSE,168,1.0,2.0,88,0.00,,---,0.00,VWS V14.01,2013-02-02 18:27:00,
2013-02-02 12:28:00,25.0,22.0,29.89,NW,304,2.0,2.0,88,0.00,,---,0.00,VWS V14.01,2013-02-02 18:28:00,
2013-02-02 12:29:00,25.0,22.0,29.89,NW,304,2.0,3.0,88,0.00,,---,0.00,VWS V14.01,2013-02-02 18:29:00,
2013-02-02 12:31:00,25.0,22.0,29.89,NW,324,1.0,2.0,88,0.00,,---,0.00,VWS V14.01,2013-02-02 18:31:00,
2013-02-02 12:33:00,25.0,22.0,29.89,NW,324,0.0,2.0,88,0.00,,---,0.00,VWS V14.01,2013-02-02 18:33:00,
2013-02-02 12:35:00,25.0,22.0,29.89,NW,324,2.0,2.0,88,0.00,,---,0.00,VWS V14.01,2013-02-02 18:35:00,
2013-02-02 12:37:00,24.8,21.8,29.89,NW,319,3.0,3.0,88,0.00,,---,0.00,VWS V14.01,2013-02-02 18:37:00,
2013-02-02 12:38:00,24.8,21.8,29.89,West,281,3.0,4.0,88,0.00,,---,0.00,VWS V14.01,2013-02-02 18:38:00,
2013-02-02 12:39:00,24.7,21.7,29.89,NW,323,3.0,3.0,88,0.00,,---,0.00,VWS V14.01,2013-02-02 18:39:00,
2013-02-02 12:42:00,24.5,21.5,29.89,NW,312,1.0,3.0,88,0.00,,---,0.00,VWS V14.01,2013-02-02 18:42:00,
2013-02-02 12:43:00,24.5,21.5,29.89,NW,317,4.0,5.0,88,0.00,,---,0.00,VWS V14.01,2013-02-02 18:43:00,
2013-02-02 12:44:00,24.4,21.4,29.89,NW,323,3.0,4.0,88,0.00,,---,0.00,VWS V14.01,2013-02-02 18:44:00,
2013-02-02 12:47:00,24.2,21.2,29.89,NW,326,2.0,2.0,88,0.00,,---,0.00,VWS V14.01,2013-02-02 18:47:00,
2013-02-02 12:48:00,24.2,21.2,29.89,WNW,283,5.0,5.0,88,0.00,,---,0.00,VWS V14.01,2013-02-02 18:48:00,
2013-02-02 12:51:00,24.1,21.1,29.89,WNW,285,0.0,0.0,88,0.00,,---,0.00,VWS V14.01,2013-02-02 18:51:00,
2013-02-02 12:54:00,24.1,21.1,29.89,North,349,2.0,3.0,88,0.00,,---,0.00,VWS V14.01,2013-02-02 18:54:00,
2013-02-02 12:55:00,24.1,21.1,29.89,North,0,4.0,6.0,88,0.00,,---,0.00,VWS V14.01,2013-02-02 18:55:00,
2013-02-02 12:56:00,24.1,21.1,29.89,North,8,4.0,4.0,88,0.00,,---,0.00,VWS V14.01,2013-02-02 18:56:00,
2013-02-02 13:00:00,23.9,20.9,29.89,NNW,343,3.0,3.0,88,0.00,,---,0.00,VWS V14.01,2013-02-02 19:00:00,
2013-02-02 13:01:00,23.9,20.9,29.89,NNW,347,1.0,4.0,88,0.00,,---,0.00,VWS V14.01,2013-02-02 19:01:00,
2013-02-02 13:03:00,23.9,20.9,29.89,NW,321,1.0,4.0,88,0.00,,---,0.00,VWS V14.01,2013-02-02 19:03:00,
2013-02-02 13:05:00,23.9,20.9,29.89,NNW,336,2.0,4.0,88,0.00,,---,0.00,VWS V14.01,2013-02-02 19:05:00,
2013-02-02 13:07:00,23.9,21.1,29.89,NNW,346,1.0,4.0,89,0.00,,---,0.00,VWS V14.01,2013-02-02 19:07:00,
2013-02-02 13:08:00,23.9,21.4,29.89,NNW,339,4.0,5.0,90,0.00,,---,0.00,VWS V14.01,2013-02-02 19:08:00,
2013-02-02 13:12:00,23.8,21.0,29.89,NNE,29,1.0,4.0,89,0.00,,---,0.00,VWS V14.01,2013-02-02 19:12:00,
2013-02-02 13:13:00,23.8,21.0,29.89,North,9,2.0,5.0,89,0.00,,---,0.00,VWS V14.01,2013-02-02 19:13:00,
2013-02-02 13:14:00,23.8,21.0,29.90,North,4,4.0,6.0,89,0.00,,---,0.00,VWS V14.01,2013-02-02 19:14:00,
2013-02-02 13:18:00,23.6,20.8,29.90,North,7,0.0,6.0,89,0.00,,---,0.00,VWS V14.01,2013-02-02 19:18:00,
2013-02-02 13:19:00,23.5,20.7,29.90,NNW,337,2.0,4.0,89,0.00,,---,0.00,VWS V14.01,2013-02-02 19:19:00,
2013-02-02 13:20:00,23.5,20.7,29.90,NNW,336,2.0,3.0,89,0.00,,---,0.00,VWS V14.01,2013-02-02 19:20:00,
2013-02-02 13:23:00,23.5,20.7,29.90,North,2,3.0,5.0,89,0.00,,---,0.00,VWS V14.01,2013-02-02 19:23:00,
2013-02-02 13:24:00,23.5,20.7,29.90,North,356,1.0,2.0,89,0.00,,---,0.00,VWS V14.01,2013-02-02 19:24:00,
2013-02-02 13:25:00,23.5,20.7,29.90,NNW,338,3.0,3.0,89,0.00,,---,0.00,VWS V14.01,2013-02-02 19:25:00,
2013-02-02 13:29:00,23.6,20.8,29.90,NW,320,5.0,5.0,89,0.00,,---,0.00,VWS V14.01,2013-02-02 19:29:00,
2013-02-02 13:30:00,23.6,20.8,29.90,NW,312,1.0,5.0,89,0.00,,---,0.00,VWS V14.01,2013-02-02 19:30:00,
2013-02-02 13:31:00,23.6,20.8,29.90,NNE,21,3.0,3.0,89,0.00,,---,0.00,VWS V14.01,2013-02-02 19:31:00,
2013-02-02 13:33:00,23.6,20.8,29.90,NNW,330,1.0,3.0,89,0.00,,---,0.00,VWS V14.01,2013-02-02 19:33:00,
2013-02-02 13:35:00,23.6,20.8,29.90,NW,306,2.0,3.0,89,0.00,,---,0.00,VWS V14.01,2013-02-02 19:35:00,
2013-02-02 13:37:00,23.6,20.8,29.90,NNW,347,2.0,3.0,89,0.00,,---,0.00,VWS V14.01,2013-02-02 19:37:00,
2013-02-02 13:39:00,23.6,20.8,29.90,NNW,342,2.0,3.0,89,0.00,,---,0.00,VWS V14.01,2013-02-02 19:39:00,
2013-02-02 13:42:00,23.6,20.6,29.90,North,356,3.0,4.0,88,0.00,,---,0.00,VWS V14.01,2013-02-02 19:42:00,
2013-02-02 13:43:00,23.6,20.6,29.90,NNW,335,2.0,2.0,88,0.00,,---,0.00,VWS V14.01,2013-02-02 19:43:00,
2013-02-02 13:44:00,23.6,20.6,29.90,NNW,340,5.0,5.0,88,0.00,,---,0.00,VWS V14.01,2013-02-02 19:44:00,
2013-02-02 13:45:00,23.6,20.6,29.90,North,358,1.0,5.0,88,0.00,,---,0.00,VWS V14.01,2013-02-02 19:45:00,
2013-02-02 13:48:00,23.6,20.6,29.90,NNW,343,1.0,2.0,88,0.00,,---,0.00,VWS V14.01,2013-02-02 19:48:00,
2013-02-02 13:49:00,23.6,20.6,29.90,NW,326,1.0,2.0,88,0.00,,---,0.00,VWS V14.01,2013-02-02 19:49:00,
2013-02-02 13:53:00,23.5,20.5,29.90,NNW,342,2.0,5.0,88,0.00,,---,0.00,VWS V14.01,2013-02-02 19:53:00,
2013-02-02 13:54:00,23.5,20.5,29.90,NNW,336,2.0,2.0,88,0.00,,---,0.00,VWS V14.01,2013-02-02 19:54:00,
2013-02-02 13:55:00,23.5,20.5,29.90,NNW,334,1.0,3.0,88,0.00,,---,0.00,VWS V14.01,2013-02-02 19:55:00,
2013-02-02 13:56:00,23.5,20.5,29.90,North,352,3.0,4.0,88,0.00,,---,0.00,VWS V14.01,2013-02-02 19:56:00,
2013-02-02 13:58:00,23.3,20.0,29.90,North,357,1.0,5.0,87,0.00,,---,0.00,VWS V14.01,2013-02-02 19:58:00,
2013-02-02 14:00:00,23.3,20.3,29.90,NW,326,5.0,5.0,88,0.00,,---,0.00,VWS V14.01,2013-02-02 20:00:00,
2013-02-02 14:01:00,23.2,20.2,29.90,NW,324,4.0,6.0,88,0.00,,---,0.00,VWS V14.01,2013-02-02 20:01:00,
2013-02-02 14:03:00,23.2,20.2,29.90,North,349,1.0,4.0,88,0.00,,---,0.00,VWS V14.01,2013-02-02 20:03:00,
2013-02-02 14:05:00,23.2,20.2,29.90,North,0,1.0,3.0,88,0.00,,---,0.00,VWS V14.01,2013-02-02 20:05:00,
2013-02-02 14:06:00,23.2,20.2,29.90,NW,312,1.0,3.0,88,0.00,,---,0.00,VWS V14.01,2013-02-02 20:06:00,
2013-02-02 14:07:00,23.2,20.2,29.90,NW,312,1.0,1.0,88,0.00,,---,0.00,VWS V14.01,2013-02-02 20:07:00,
2013-02-02 14:09:00,23.2,20.2,29.90,NW,326,0.0,2.0,88,0.00,,---,0.00,VWS V14.01,2013-02-02 20:09:00,
2013-02-02 14:12:00,23.2,20.2,29.90,North,352,3.0,4.0,88,0.00,,---,0.00,VWS V14.01,2013-02-02 20:12:00,
2013-02-02 14:13:00,23.2,19.9,29.90,NNW,327,3.0,4.0,87,0.00,,---,0.00,VWS V14.01,2013-02-02 20:13:00,
2013-02-02 14:14:00,23.2,19.9,29.90,NNW,328,2.0,2.0,87,0.00,,---,0.00,VWS V14.01,2013-02-02 20:14:00,
2013-02-02 14:18:00,23.2,20.2,29.90,North,1,1.0,2.0,88,0.00,,---,0.00,VWS V14.01,2013-02-02 20:18:00,
2013-02-02 14:19:00,23.2,20.2,29.90,NW,317,2.0,2.0,88,0.00,,---,0.00,VWS V14.01,2013-02-02 20:19:00,
2013-02-02 14:20:00,23.2,19.9,29.90,North,352,2.0,3.0,87,0.00,,---,0.00,VWS V14.01,2013-02-02 20:20:00,
2013-02-02 14:23:00,23.0,19.7,29.90,NNW,330,3.0,3.0,87,0.00,,---,0.00,VWS V14.01,2013-02-02 20:23:00,
2013-02-02 14:24:00,23.0,19.7,29.90,North,349,2.0,4.0,87,0.00,,---,0.00,VWS V14.01,2013-02-02 20:24:00,
2013-02-02 14:27:00,22.9,19.6,29.90,NW,319,3.0,4.0,87,0.00,,---,0.00,VWS V14.01,2013-02-02 20:27:00,
2013-02-02 14:28:00,22.9,19.6,29.90,NNW,340,0.0,3.0,87,0.00,,---,0.00,VWS V14.01,2013-02-02 20:28:00,
2013-02-02 14:29:00,22.9,19.6,29.91,NW,316,2.0,3.0,87,0.00,,---,0.00,VWS V14.01,2013-02-02 20:29:00,
2013-02-02 14:30:00,22.9,19.6,29.91,NW,316,1.0,2.0,87,0.00,,---,0.00,VWS V14.01,2013-02-02 20:30:00,
2013-02-02 14:32:00,22.7,19.7,29.91,NW,323,2.0,2.0,88,0.00,,---,0.00,VWS V14.01,2013-02-02 20:32:00,
2013-02-02 14:33:00,22.7,19.7,29.91,NNW,337,2.0,2.0,88,0.00,,---,0.00,VWS V14.01,2013-02-02 20:33:00,
2013-02-02 14:34:00,22.7,19.7,29.91,WNW,291,1.0,2.0,88,0.00,,---,0.00,VWS V14.01,2013-02-02 20:34:00,
2013-02-02 14:36:00,22.7,19.7,29.91,North,358,2.0,2.0,88,0.00,,---,0.00,VWS V14.01,2013-02-02 20:36:00,
2013-02-02 14:38:00,22.5,19.5,29.91,NNW,342,3.0,4.0,88,0.00,,---,0.00,VWS V14.01,2013-02-02 20:38:00,
2013-02-02 14:39:00,22.5,19.5,29.91,NW,316,3.0,3.0,88,0.00,,---,0.00,VWS V14.01,2013-02-02 20:39:00,
2013-02-02 14:40:00,22.5,19.5,29.91,North,0,2.0,4.0,88,0.00,,---,0.00,VWS V14.01,2013-02-02 20:40:00,
2013-02-02 14:43:00,22.4,19.4,29.91,North,0,4.0,4.0,88,0.00,,---,0.00,VWS V14.01,2013-02-02 20:43:00,
2013-02-02 14:44:00,22.4,19.4,29.92,WNW,298,3.0,3.0,88,0.00,,---,0.00,VWS V14.01,2013-02-02 20:44:00,
2013-02-02 14:45:00,22.4,19.4,29.92,WNW,287,3.0,5.0,88,0.00,,---,0.00,VWS V14.01,2013-02-02 20:45:00,
2013-02-02 14:46:00,22.2,19.2,29.92,North,358,5.0,7.0,88,0.00,,---,0.00,VWS V14.01,2013-02-02 20:46:00,
2013-02-02 14:49:00,22.2,19.2,29.92,NNW,337,2.0,4.0,88,0.00,,---,0.00,VWS V14.01,2013-02-02 20:49:00,
2013-02-02 14:50:00,22.1,19.1,29.92,North,352,6.0,6.0,88,0.00,,---,0.00,VWS V14.01,2013-02-02 20:50:00,
2013-02-02 14:52:00,22.1,19.1,29.92,NNW,335,3.0,5.0,88,0.00,,---,0.00,VWS V14.01,2013-02-02 20:52:00,
2013-02-02 14:56:00,21.9,18.9,29.92,North,358,4.0,4.0,88,0.00,,---,0.00,VWS V14.01,2013-02-02 20:56:00,
2013-02-02 14:57:00,21.8,18.8,29.92,WNW,291,3.0,6.0,88,0.00,,---,0.00,VWS V14.01,2013-02-02 20:57:00,
2013-02-02 14:58:00,21.8,18.8,29.92,NW,322,3.0,3.0,88,0.00,,---,0.00,VWS V14.01,2013-02-02 20:58:00,
2013-02-02 15:01:00,21.6,18.9,29.92,West,276,7.0,7.0,89,0.00,,---,0.00,VWS V14.01,2013-02-02 21:01:00,
2013-02-02 15:03:00,21.6,18.9,29.92,NW,321,3.0,4.0,89,0.00,,---,0.00,VWS V14.01,2013-02-02 21:03:00,
2013-02-02 15:04:00,21.6,18.9,29.92,West,269,4.0,4.0,89,0.00,,---,0.00,VWS V14.01,2013-02-02 21:04:00,
2013-02-02 15:06:00,21.6,18.9,29.92,WNW,288,1.0,2.0,89,0.00,,---,0.00,VWS V14.01,2013-02-02 21:06:00,
2013-02-02 15:07:00,21.6,18.9,29.92,NW,325,1.0,3.0,89,0.00,,---,0.00,VWS V14.01,2013-02-02 21:07:00,
2013-02-02 15:08:00,21.6,18.1,29.92,WNW,290,3.0,7.0,86,0.00,,---,0.00,VWS V14.01,2013-02-02 21:08:00,
2013-02-02 15:09:00,21.4,17.9,29.92,NW,326,3.0,6.0,86,0.00,,---,0.00,VWS V14.01,2013-02-02 21:09:00,
2013-02-02 15:11:00,21.4,18.7,29.92,North,0,3.0,4.0,89,0.00,,---,0.00,VWS V14.01,2013-02-02 21:11:00,
2013-02-02 15:14:00,21.4,18.7,29.92,NW,313,2.0,2.0,89,0.00,,---,0.00,VWS V14.01,2013-02-02 21:14:00,
2013-02-02 15:15:00,21.4,18.7,29.92,WNW,285,4.0,4.0,89,0.00,,---,0.00,VWS V14.01,2013-02-02 21:15:00,
2013-02-02 15:18:00,21.3,18.6,29.92,NNW,329,2.0,5.0,89,0.00,,---,0.00,VWS V14.01,2013-02-02 21:18:00,
2013-02-02 15:19:00,21.3,18.6,29.92,NNW,329,1.0,3.0,89,0.00,,---,0.00,VWS V14.01,2013-02-02 21:19:00,
2013-02-02 15:20:00,21.3,18.6,29.92,NW,311,3.0,4.0,89,0.00,,---,0.00,VWS V14.01,2013-02-02 21:20:00,
2013-02-02 15:23:00,21.3,18.6,29.92,North,0,3.0,5.0,89,0.00,,---,0.00,VWS V14.01,2013-02-02 21:23:00,
2013-02-02 15:25:00,21.1,18.4,29.92,NW,309,6.0,6.0,89,0.00,,---,0.00,VWS V14.01,2013-02-02 21:25:00,
2013-02-02 15:27:00,21.1,18.4,29.92,NNW,337,3.0,5.0,89,0.00,,---,0.00,VWS V14.01,2013-02-02 21:27:00,
2013-02-02 15:28:00,21.0,18.3,29.92,NW,325,2.0,3.0,89,0.00,,---,0.00,VWS V14.01,2013-02-02 21:28:00,
2013-02-02 15:30:00,21.0,18.3,29.93,NW,316,2.0,4.0,89,0.00,,---,0.00,VWS V14.01,2013-02-02 21:30:00,
2013-02-02 15:32:00,21.0,18.3,29.93,NW,322,2.0,3.0,89,0.00,,---,0.00,VWS V14.01,2013-02-02 21:32:00,
2013-02-02 15:33:00,21.0,18.3,29.93,North,352,1.0,5.0,89,0.00,,---,0.00,VWS V14.01,2013-02-02 21:33:00,
2013-02-02 15:34:00,21.0,18.3,29.93,North,349,2.0,3.0,89,0.00,,---,0.00,VWS V14.01,2013-02-02 21:34:00,
2013-02-02 15:35:00,21.0,18.3,29.93,NNW,341,0.0,2.0,89,0.00,,---,0.00,VWS V14.01,2013-02-02 21:35:00,
2013-02-02 15:37:00,20.8,18.1,29.93,NW,312,2.0,2.0,89,0.00,,---,0.00,VWS V14.01,2013-02-02 21:37:00,
2013-02-02 15:38:00,20.8,18.1,29.93,NNW,339,1.0,3.0,89,0.00,,---,0.00,VWS V14.01,2013-02-02 21:38:00,
2013-02-02 15:39:00,20.8,18.1,29.93,NW,322,4.0,6.0,89,0.00,,---,0.00,VWS V14.01,2013-02-02 21:39:00,
2013-02-02 15:41:00,20.6,17.9,29.93,West,263,3.0,3.0,89,0.00,,---,0.00,VWS V14.01,2013-02-02 21:41:00,
2013-02-02 15:43:00,20.6,17.9,29.94,WNW,288,3.0,3.0,89,0.00,,---,0.00,VWS V14.01,2013-02-02 21:43:00,
2013-02-02 15:44:00,20.5,17.8,29.94,West,279,5.0,5.0,89,0.00,,---,0.00,VWS V14.01,2013-02-02 21:44:00,
2013-02-02 15:45:00,20.5,17.8,29.94,NNW,345,3.0,6.0,89,0.00,,---,0.00,VWS V14.01,2013-02-02 21:45:00,
2013-02-02 15:47:00,20.5,17.8,29.94,NNW,337,2.0,4.0,89,0.00,,---,0.00,VWS V14.01,2013-02-02 21:47:00,
2013-02-02 15:49:00,20.3,17.6,29.94,NW,311,4.0,5.0,89,0.00,,---,0.00,VWS V14.01,2013-02-02 21:49:00,
2013-02-02 15:50:00,20.3,17.6,29.94,NW,324,5.0,6.0,89,0.00,,---,0.00,VWS V14.01,2013-02-02 21:50:00,
2013-02-02 15:52:00,20.3,17.6,29.94,NW,326,3.0,4.0,89,0.00,,---,0.00,VWS V14.01,2013-02-02 21:52:00,
2013-02-02 15:54:00,20.2,17.5,29.94,NNW,334,4.0,4.0,89,0.00,,---,0.00,VWS V14.01,2013-02-02 21:54:00,
2013-02-02 15:55:00,20.2,17.5,29.94,WNW,302,4.0,4.0,89,0.00,,---,0.00,VWS V14.01,2013-02-02 21:55:00,
2013-02-02 15:58:00,20.2,17.5,29.94,NW,307,4.0,4.0,89,0.00,,---,0.00,VWS V14.01,2013-02-02 21:58:00,
2013-02-02 16:00:00,20.2,17.5,29.94,SW,233,2.0,4.0,89,0.00,,---,0.00,VWS V14.01,2013-02-02 22:00:00,
2013-02-02 16:01:00,20.2,17.5,29.94,NNW,342,3.0,5.0,89,0.00,,---,0.00,VWS V14.01,2013-02-02 22:01:00,
2013-02-02 16:02:00,20.0,17.3,29.94,NNW,340,1.0,2.0,89,0.00,,---,0.00,VWS V14.01,2013-02-02 22:02:00,
2013-02-02 16:03:00,20.0,17.3,29.94,NNW,347,3.0,4.0,89,0.00,,---,0.00,VWS V14.01,2013-02-02 22:03:00,
2013-02-02 16:06:00,20.0,17.3,29.94,WNW,291,6.0,6.0,89,0.00,,---,0.00,VWS V14.01,2013-02-02 22:06:00,
2013-02-02 16:08:00,20.0,17.3,29.94,NW,319,1.0,4.0,89,0.00,,---,0.00,VWS V14.01,2013-02-02 22:08:00,
2013-02-02 16:10:00,20.0,17.3,29.94,NW,326,3.0,3.0,89,0.00,,---,0.00,VWS V14.01,2013-02-02 22:10:00,
2013-02-02 16:12:00,20.0,17.3,29.94,NW,323,2.0,2.0,89,0.00,,---,0.00,VWS V14.01,2013-02-02 22:12:00,
2013-02-02 16:13:00,20.0,17.3,29.94,NW,307,6.0,6.0,89,0.00,,---,0.00,VWS V14.01,2013-02-02 22:13:00,
2013-02-02 16:16:00,19.9,17.2,29.94,WNW,287,2.0,2.0,89,0.00,,---,0.00,VWS V14.01,2013-02-02 22:16:00,
2013-02-02 16:17:00,19.9,17.2,29.94,North,355,3.0,4.0,89,0.00,,---,0.00,VWS V14.01,2013-02-02 22:17:00,
2013-02-02 16:18:00,19.9,17.2,29.94,WNW,295,2.0,3.0,89,0.00,,---,0.00,VWS V14.01,2013-02-02 22:18:00,
2013-02-02 16:22:00,19.9,17.2,29.94,NNW,339,1.0,3.0,89,0.00,,---,0.00,VWS V14.01,2013-02-02 22:22:00,
2013-02-02 16:23:00,19.9,17.2,29.94,NNW,339,2.0,3.0,89,0.00,,---,0.00,VWS V14.01,2013-02-02 22:23:00,
2013-02-02 16:24:00,19.9,17.2,29.94,NNW,345,4.0,4.0,89,0.00,,---,0.00,VWS V14.01,2013-02-02 22:24:00,
2013-02-02 16:27:00,19.9,17.2,29.94,NNW,336,2.0,2.0,89,0.00,,---,0.00,VWS V14.01,2013-02-02 22:27:00,
2013-02-02 16:28:00,19.9,17.2,29.94,NW,323,4.0,4.0,89,0.00,,---,0.00,VWS V14.01,2013-02-02 22:28:00,
2013-02-02 16:29:00,19.9,17.2,29.95,NNW,345,3.0,4.0,89,0.00,,---,0.00,VWS V14.01,2013-02-02 22:29:00,
2013-02-02 16:33:00,19.7,17.0,29.95,NW,319,4.0,4.0,89,0.00,,---,0.00,VWS V14.01,2013-02-02 22:33:00,
2013-02-02 16:34:00,19.7,17.0,29.95,NW,326,4.0,4.0,89,0.00,,---,0.00,VWS V14.01,2013-02-02 22:34:00,
2013-02-02 16:35:00,19.7,17.0,29.95,NW,305,2.0,4.0,89,0.00,,---,0.00,VWS V14.01,2013-02-02 22:35:00,
2013-02-02 16:36:00,19.7,17.0,29.95,WNW,295,3.0,3.0,89,0.00,,---,0.00,VWS V14.01,2013-02-02 22:36:00,
2013-02-02 16:38:00,19.7,17.0,29.95,NNW,338,2.0,4.0,89,0.00,,---,0.00,VWS V14.01,2013-02-02 22:38:00,
2013-02-02 16:40:00,19.5,16.8,29.95,NNW,328,3.0,3.0,89,0.00,,---,0.00,VWS V14.01,2013-02-02 22:40:00,
2013-02-02 16:41:00,19.5,16.8,29.95,WNW,298,4.0,4.0,89,0.00,,---,0.00,VWS V14.01,2013-02-02 22:41:00,
2013-02-02 16:43:00,19.5,16.8,29.95,NW,324,3.0,7.0,89,0.00,,---,0.00,VWS V14.01,2013-02-02 22:43:00,
2013-02-02 16:46:00,19.5,16.8,29.94,NNW,331,5.0,5.0,89,0.00,,---,0.00,VWS V14.01,2013-02-02 22:46:00,
2013-02-02 16:48:00,19.4,16.7,29.94,NNW,335,4.0,4.0,89,0.00,,---,0.00,VWS V14.01,2013-02-02 22:48:00,
2013-02-02 16:50:00,19.4,16.7,29.94,NW,314,1.0,2.0,89,0.00,,---,0.00,VWS V14.01,2013-02-02 22:50:00,
2013-02-02 16:51:00,19.4,16.7,29.94,NNW,334,4.0,6.0,89,0.00,,---,0.00,VWS V14.01,2013-02-02 22:51:00,
2013-02-02 16:55:00,19.4,16.7,29.94,North,358,3.0,5.0,89,0.00,,---,0.00,VWS V14.01,2013-02-02 22:55:00,
2013-02-02 16:56:00,19.4,16.7,29.94,WNW,289,3.0,4.0,89,0.00,,---,0.00,VWS V14.01,2013-02-02 22:56:00,
2013-02-02 16:57:00,19.4,16.7,29.94,NNW,336,4.0,4.0,89,0.00,,---,0.00,VWS V14.01,2013-02-02 22:57:00,
2013-02-02 17:01:00,19.2,16.5,29.95,West,277,2.0,2.0,89,0.00,,---,0.00,VWS V14.01,2013-02-02 23:01:00,
2013-02-02 17:02:00,19.2,16.5,29.95,NW,321,3.0,4.0,89,0.00,,---,0.00,VWS V14.01,2013-02-02 23:02:00,
2013-02-02 17:03:00,19.2,16.5,29.95,NW,321,2.0,3.0,89,0.00,,---,0.00,VWS V14.01,2013-02-02 23:03:00,
2013-02-02 17:07:00,19.2,16.5,29.95,West,272,2.0,4.0,89,0.00,,---,0.00,VWS V14.01,2013-02-02 23:07:00,
2013-02-02 17:08:00,19.2,16.5,29.95,WNW,298,3.0,4.0,89,0.00,,---,0.00,VWS V14.01,2013-02-02 23:08:00,
2013-02-02 17:12:00,19.1,16.4,29.95,NW,320,3.0,4.0,89,0.00,,---,0.00,VWS V14.01,2013-02-02 23:12:00,
2013-02-02 17:13:00,19.1,16.4,29.95,NW,322,1.0,4.0,89,0.00,,---,0.00,VWS V14.01,2013-02-02 23:13:00,
2013-02-02 17:14:00,19.1,16.4,29.95,NW,322,1.0,2.0,89,0.00,,---,0.00,VWS V14.01,2013-02-02 23:14:00,
2013-02-02 17:17:00,18.9,16.2,29.95,WNW,300,3.0,3.0,89,0.00,,---,0.00,VWS V14.01,2013-02-02 23:17:00,
2013-02-02 17:18:00,18.9,16.2,29.95,NW,318,2.0,3.0,89,0.00,,---,0.00,VWS V14.01,2013-02-02 23:18:00,
2013-02-02 17:19:00,18.9,16.2,29.95,NW,318,2.0,2.0,89,0.00,,---,0.00,VWS V14.01,2013-02-02 23:19:00,
2013-02-02 17:23:00,18.9,16.2,29.95,WNW,297,1.0,6.0,89,0.00,,---,0.00,VWS V14.01,2013-02-02 23:23:00,
2013-02-02 17:25:00,18.8,16.1,29.95,NNW,333,2.0,2.0,89,0.00,,---,0.00,VWS V14.01,2013-02-02 23:25:00,
2013-02-02 17:26:00,18.8,16.1,29.95,NNW,337,1.0,1.0,89,0.00,,---,0.00,VWS V14.01,2013-02-02 23:26:00,
2013-02-02 17:30:00,18.8,16.1,29.95,NNW,335,2.0,3.0,89,0.00,,---,0.00,VWS V14.01,2013-02-02 23:30:00,
2013-02-02 17:31:00,18.8,16.1,29.95,NNW,328,0.0,3.0,89,0.00,,---,0.00,VWS V14.01,2013-02-02 23:31:00,
2013-02-02 17:32:00,18.8,16.1,29.95,NNW,333,2.0,3.0,89,0.00,,---,0.00,VWS V14.01,2013-02-02 23:32:00,
2013-02-02 17:35:00,18.6,15.9,29.95,West,272,2.0,4.0,89,0.00,,---,0.00,VWS V14.01,2013-02-02 23:35:00,
2013-02-02 17:36:00,18.6,15.9,29.95,North,349,2.0,5.0,89,0.00,,---,0.00,VWS V14.01,2013-02-02 23:36:00,
2013-02-02 17:37:00,18.6,15.9,29.95,NW,321,2.0,3.0,89,0.00,,---,0.00,VWS V14.01,2013-02-02 23:37:00,
2013-02-02 17:39:00,18.6,15.9,29.95,NW,321,0.0,3.0,89,0.00,,---,0.00,VWS V14.01,2013-02-02 23:39:00,
2013-02-02 17:41:00,18.6,15.9,29.95,NW,321,2.0,2.0,89,0.00,,---,0.00,VWS V14.01,2013-02-02 23:41:00,
2013-02-02 17:43:00,18.6,15.9,29.95,NNW,338,1.0,2.0,89,0.00,,---,0.00,VWS V14.01,2013-02-02 23:43:00,
2013-02-02 17:44:00,18.6,15.9,29.95,NNW,330,1.0,2.0,89,0.00,,---,0.00,VWS V14.01,2013-02-02 23:44:00,
2013-02-02 17:45:00,18.4,15.7,29.95,NW,321,3.0,4.0,89,0.00,,---,0.00,VWS V14.01,2013-02-02 23:45:00,
2013-02-02 17:47:00,18.4,15.7,29.95,North,349,3.0,3.0,89,0.00,,---,0.00,VWS V14.01,2013-02-02 23:47:00,
2013-02-02 17:49:00,18.4,15.7,29.95,NW,326,2.0,2.0,89,0.00,,---,0.00,VWS V14.01,2013-02-02 23:49:00,
2013-02-02 17:51:00,18.3,15.6,29.95,NW,323,1.0,3.0,89,0.00,,---,0.00,VWS V14.01,2013-02-02 23:51:00,
2013-02-02 17:52:00,18.3,15.6,29.95,NW,304,3.0,6.0,89,0.00,,---,0.00,VWS V14.01,2013-02-02 23:52:00,
2013-02-02 17:56:00,18.1,15.4,29.95,WNW,293,2.0,3.0,89,0.00,,---,0.00,VWS V14.01,2013-02-02 23:56:00,
2013-02-02 17:57:00,18.1,15.4,29.95,NW,325,3.0,4.0,89,0.00,,---,0.00,VWS V14.01,2013-02-02 23:57:00,
2013-02-02 17:58:00,18.1,15.4,29.95,North,349,2.0,3.0,89,0.00,,---,0.00,VWS V14.01,2013-02-02 23:58:00,
2013-02-02 18:01:00,18.1,15.4,29.96,NW,317,3.0,4.0,89,0.00,,---,0.00,VWS V14.01,2013-02-03 00:01:00,
2013-02-02 18:02:00,18.0,15.3,29.96,NNW,327,2.0,4.0,89,0.00,,---,0.00,VWS V14.01,2013-02-03 00:02:00,
2013-02-02 18:03:00,18.0,15.3,29.96,NW,307,3.0,4.0,89,0.00,,---,0.00,VWS V14.01,2013-02-03 00:03:00,
2013-02-02 18:07:00,18.0,15.3,29.96,NNW,335,3.0,4.0,89,0.00,,---,0.00,VWS V14.01,2013-02-03 00:07:00,
2013-02-02 18:09:00,18.0,15.3,29.96,NNW,336,2.0,3.0,89,0.00,,---,0.00,VWS V14.01,2013-02-03 00:09:00,
2013-02-02 18:11:00,17.8,15.1,29.96,WNW,302,2.0,2.0,89,0.00,,---,0.00,VWS V14.01,2013-02-03 00:11:00,
2013-02-02 18:13:00,17.8,15.1,29.96,North,350,1.0,4.0,89,0.00,,---,0.00,VWS V14.01,2013-02-03 00:13:00,
2013-02-02 18:14:00,17.8,15.1,29.95,NNW,336,0.0,1.0,89,0.00,,---,0.00,VWS V14.01,2013-02-03 00:14:00,
2013-02-02 18:15:00,17.8,15.1,29.95,NW,316,2.0,3.0,89,0.00,,---,0.00,VWS V14.01,2013-02-03 00:15:00,
2013-02-02 18:17:00,17.8,15.1,29.95,WNW,297,3.0,3.0,89,0.00,,---,0.00,VWS V14.01,2013-02-03 00:17:00,
2013-02-02 18:18:00,17.8,15.1,29.95,NW,316,2.0,5.0,89,0.00,,---,0.00,VWS V14.01,2013-02-03 00:18:00,
2013-02-02 18:20:00,17.7,14.8,29.95,NW,318,1.0,4.0,88,0.00,,---,0.00,VWS V14.01,2013-02-03 00:20:00,
2013-02-02 18:22:00,17.7,14.8,29.95,NW,305,1.0,2.0,88,0.00,,---,0.00,VWS V14.01,2013-02-03 00:22:00,
2013-02-02 18:23:00,17.7,14.8,29.95,NNW,336,2.0,3.0,88,0.00,,---,0.00,VWS V14.01,2013-02-03 00:23:00,
2013-02-02 18:25:00,17.7,14.8,29.95,NW,320,2.0,3.0,88,0.00,,---,0.00,VWS V14.01,2013-02-03 00:25:00,
2013-02-02 18:29:00,17.5,14.6,29.96,NW,311,2.0,3.0,88,0.00,,---,0.00,VWS V14.01,2013-02-03 00:29:00,
2013-02-02 18:30:00,17.5,14.6,29.96,West,266,1.0,2.0,88,0.00,,---,0.00,VWS V14.01,2013-02-03 00:30:00,
2013-02-02 18:31:00,17.5,14.6,29.96,WNW,282,0.0,4.0,88,0.00,,---,0.00,VWS V14.01,2013-02-03 00:31:00,
2013-02-02 18:33:00,17.5,14.6,29.96,NW,307,2.0,4.0,88,0.00,,---,0.00,VWS V14.01,2013-02-03 00:33:00,
2013-02-02 18:34:00,17.5,14.6,29.96,NW,311,3.0,4.0,88,0.00,,---,0.00,VWS V14.01,2013-02-03 00:34:00,
2013-02-02 18:35:00,17.3,14.4,29.96,NNW,337,4.0,4.0,88,0.00,,---,0.00,VWS V14.01,2013-02-03 00:35:00,
2013-02-02 18:37:00,17.3,14.4,29.96,NW,319,2.0,4.0,88,0.00,,---,0.00,VWS V14.01,2013-02-03 00:37:00,
2013-02-02 18:38:00,17.3,14.4,29.96,WNW,290,4.0,5.0,88,0.00,,---,0.00,VWS V14.01,2013-02-03 00:38:00,
2013-02-02 18:40:00,17.2,14.0,29.96,WNW,284,3.0,3.0,87,0.00,,---,0.00,VWS V14.01,2013-02-03 00:40:00,
2013-02-02 18:41:00,17.2,14.0,29.96,WNW,290,3.0,7.0,87,0.00,,---,0.00,VWS V14.01,2013-02-03 00:41:00,
2013-02-02 18:43:00,17.2,14.0,29.97,NW,322,5.0,5.0,87,0.00,,---,0.00,VWS V14.01,2013-02-03 00:43:00,
2013-02-02 18:44:00,17.2,14.0,29.97,WNW,290,5.0,7.0,87,0.00,,---,0.00,VWS V14.01,2013-02-03 00:44:00,
2013-02-02 18:46:00,17.2,14.0,29.97,WNW,296,4.0,6.0,87,0.00,,---,0.00,VWS V14.01,2013-02-03 00:46:00,
2013-02-02 18:47:00,17.0,13.8,29.97,NNW,328,2.0,6.0,87,0.00,,---,0.00,VWS V14.01,2013-02-03 00:47:00,
2013-02-02 18:50:00,17.0,13.8,29.97,WNW,302,2.0,3.0,87,0.00,,---,0.00,VWS V14.01,2013-02-03 00:50:00,
2013-02-02 18:51:00,17.0,13.8,29.97,NNW,342,2.0,5.0,87,0.00,,---,0.00,VWS V14.01,2013-02-03 00:51:00,
2013-02-02 18:52:00,17.0,13.8,29.97,NNW,347,1.0,2.0,87,0.00,,---,0.00,VWS V14.01,2013-02-03 00:52:00,
2013-02-02 18:56:00,17.0,13.8,29.97,NW,304,2.0,3.0,87,0.00,,---,0.00,VWS V14.01,2013-02-03 00:56:00,
2013-02-02 18:57:00,17.0,13.8,29.97,NW,323,5.0,6.0,87,0.00,,---,0.00,VWS V14.01,2013-02-03 00:57:00,
2013-02-02 18:58:00,17.0,13.5,29.97,WNW,302,4.0,6.0,86,0.00,,---,0.00,VWS V14.01,2013-02-03 00:58:00,
2013-02-02 19:02:00,16.9,13.4,29.97,NW,317,3.0,3.0,86,0.00,,---,0.00,VWS V14.01,2013-02-03 01:02:00,
2013-02-02 19:03:00,16.9,13.4,29.97,NW,323,1.0,4.0,86,0.00,,---,0.00,VWS V14.01,2013-02-03 01:03:00,
2013-02-02 19:04:00,16.9,13.4,29.97,NW,323,1.0,2.0,86,0.00,,---,0.00,VWS V14.01,2013-02-03 01:04:00,
2013-02-02 19:07:00,16.9,13.4,29.97,NNW,328,1.0,1.0,86,0.00,,---,0.00,VWS V14.01,2013-02-03 01:07:00,
2013-02-02 19:09:00,16.9,13.4,29.97,WNW,298,2.0,3.0,86,0.00,,---,0.00,VWS V14.01,2013-02-03 01:09:00,
2013-02-02 19:10:00,16.9,13.4,29.97,NW,317,2.0,3.0,86,0.00,,---,0.00,VWS V14.01,2013-02-03 01:10:00,
2013-02-02 19:13:00,16.7,13.2,29.97,NW,319,4.0,4.0,86,0.00,,---,0.00,VWS V14.01,2013-02-03 01:13:00,
2013-02-02 19:14:00,16.7,13.2,29.97,NNW,330,2.0,2.0,86,0.00,,---,0.00,VWS V14.01,2013-02-03 01:14:00,
2013-02-02 19:15:00,16.7,13.2,29.97,West,266,3.0,3.0,86,0.00,,---,0.00,VWS V14.01,2013-02-03 01:15:00,
2013-02-02 19:16:00,16.7,13.2,29.97,NW,323,4.0,4.0,86,0.00,,---,0.00,VWS V14.01,2013-02-03 01:16:00,
2013-02-02 19:18:00,16.5,13.1,29.97,WNW,298,1.0,3.0,86,0.00,,---,0.00,VWS V14.01,2013-02-03 01:18:00,
2013-02-02 19:20:00,16.5,12.8,29.97,WNW,291,1.0,3.0,85,0.00,,---,0.00,VWS V14.01,2013-02-03 01:20:00,
2013-02-02 19:21:00,16.4,12.7,29.97,West,271,2.0,3.0,85,0.00,,---,0.00,VWS V14.01,2013-02-03 01:21:00,
2013-02-02 19:23:00,16.4,12.7,29.97,West,270,2.0,3.0,85,0.00,,---,0.00,VWS V14.01,2013-02-03 01:23:00,
2013-02-02 19:26:00,16.1,12.4,29.97,NW,311,4.0,4.0,85,0.00,,---,0.00,VWS V14.01,2013-02-03 01:26:00,
2013-02-02 19:27:00,16.1,12.4,29.97,WNW,302,1.0,2.0,85,0.00,,---,0.00,VWS V14.01,2013-02-03 01:27:00,
2013-02-02 19:31:00,15.9,11.9,29.98,NW,309,2.0,3.0,84,0.00,,---,0.00,VWS V14.01,2013-02-03 01:31:00,
2013-02-02 19:32:00,15.9,11.9,29.98,WNW,291,0.0,1.0,84,0.00,,---,0.00,VWS V14.01,2013-02-03 01:32:00,
2013-02-02 19:33:00,15.9,11.9,29.98,NW,319,2.0,3.0,84,0.00,,---,0.00,VWS V14.01,2013-02-03 01:33:00,
2013-02-02 19:35:00,15.7,11.7,29.98,NNW,341,2.0,4.0,84,0.00,,---,0.00,VWS V14.01,2013-02-03 01:35:00,
2013-02-02 19:36:00,15.7,11.7,29.98,North,0,0.0,1.0,84,0.00,,---,0.00,VWS V14.01,2013-02-03 01:36:00,
2013-02-02 19:39:00,15.7,11.7,29.98,West,260,0.0,2.0,84,0.00,,---,0.00,VWS V14.01,2013-02-03 01:39:00,
2013-02-02 19:40:00,15.6,11.6,29.98,West,265,1.0,2.0,84,0.00,,---,0.00,VWS V14.01,2013-02-03 01:40:00,
2013-02-02 19:41:00,15.6,11.6,29.98,North,349,1.0,3.0,84,0.00,,---,0.00,VWS V14.01,2013-02-03 01:41:00,
2013-02-02 19:43:00,15.6,11.6,29.98,WNW,295,1.0,3.0,84,0.00,,---,0.00,VWS V14.01,2013-02-03 01:43:00,
2013-02-02 19:45:00,15.4,11.4,29.98,NNW,344,2.0,3.0,84,0.00,,---,0.00,VWS V14.01,2013-02-03 01:45:00,
2013-02-02 19:46:00,15.4,11.2,29.98,NW,315,1.0,3.0,83,0.00,,---,0.00,VWS V14.01,2013-02-03 01:46:00,
2013-02-02 19:47:00,15.4,11.2,29.98,NW,315,0.0,1.0,83,0.00,,---,0.00,VWS V14.01,2013-02-03 01:47:00,
2013-02-02 19:49:00,15.4,11.2,29.98,WNW,294,1.0,3.0,83,0.00,,---,0.00,VWS V14.01,2013-02-03 01:49:00,
2013-02-02 19:51:00,15.2,11.0,29.98,West,271,2.0,3.0,83,0.00,,---,0.00,VWS V14.01,2013-02-03 01:51:00,
2013-02-02 19:52:00,15.2,11.0,29.98,WNW,285,3.0,3.0,83,0.00,,---,0.00,VWS V14.01,2013-02-03 01:52:00,
2013-02-02 19:53:00,15.2,11.0,29.98,WNW,300,1.0,3.0,83,0.00,,---,0.00,VWS V14.01,2013-02-03 01:53:00,
2013-02-02 19:55:00,15.2,11.0,29.98,West,279,2.0,2.0,83,0.00,,---,0.00,VWS V14.01,2013-02-03 01:55:00,
2013-02-02 19:56:00,15.2,11.0,29.98,West,278,2.0,3.0,83,0.00,,---,0.00,VWS V14.01,2013-02-03 01:56:00,
2013-02-02 19:57:00,15.1,10.9,29.98,NW,305,2.0,3.0,83,0.00,,---,0.00,VWS V14.01,2013-02-03 01:57:00,
2013-02-02 20:00:00,15.1,10.9,29.98,NW,309,0.0,1.0,83,0.00,,---,0.00,VWS V14.01,2013-02-03 02:00:00,
2013-02-02 20:01:00,15.1,10.9,29.98,NW,305,3.0,3.0,83,0.00,,---,0.00,VWS V14.01,2013-02-03 02:01:00,
2013-02-02 20:03:00,15.1,10.9,29.98,NW,304,3.0,6.0,83,0.00,,---,0.00,VWS V14.01,2013-02-03 02:03:00,
2013-02-02 20:06:00,14.9,10.4,29.98,NNW,328,2.0,2.0,82,0.00,,---,0.00,VWS V14.01,2013-02-03 02:06:00,
2013-02-02 20:08:00,14.9,10.4,29.98,NNW,330,2.0,3.0,82,0.00,,---,0.00,VWS V14.01,2013-02-03 02:08:00,
2013-02-02 20:09:00,14.9,10.4,29.98,NNW,330,2.0,2.0,82,0.00,,---,0.00,VWS V14.01,2013-02-03 02:09:00,
2013-02-02 20:10:00,14.9,10.4,29.98,NW,325,2.0,3.0,82,0.00,,---,0.00,VWS V14.01,2013-02-03 02:10:00,
2013-02-02 20:12:00,14.9,10.4,29.98,NW,320,2.0,4.0,82,0.00,,---,0.00,VWS V14.01,2013-02-03 02:12:00,
2013-02-02 20:13:00,14.9,10.4,29.98,WNW,290,2.0,3.0,82,0.00,,---,0.00,VWS V14.01,2013-02-03 02:13:00,
2013-02-02 20:15:00,14.8,10.3,29.97,NNW,330,1.0,2.0,82,0.00,,---,0.00,VWS V14.01,2013-02-03 02:15:00,
2013-02-02 20:18:00,14.8,10.3,29.97,West,281,1.0,2.0,82,0.00,,---,0.00,VWS V14.01,2013-02-03 02:18:00,
2013-02-02 20:19:00,14.8,10.3,29.97,NW,316,2.0,5.0,82,0.00,,---,0.00,VWS V14.01,2013-02-03 02:19:00,
2013-02-02 20:20:00,14.6,10.1,29.97,NW,315,1.0,2.0,82,0.00,,---,0.00,VWS V14.01,2013-02-03 02:20:00,
2013-02-02 20:21:00,14.6,10.1,29.97,NW,319,2.0,2.0,82,0.00,,---,0.00,VWS V14.01,2013-02-03 02:21:00,
2013-02-02 20:25:00,14.6,9.8,29.97,West,270,2.0,3.0,81,0.00,,---,0.00,VWS V14.01,2013-02-03 02:25:00,
2013-02-02 20:26:00,14.6,9.8,29.97,NW,315,2.0,3.0,81,0.00,,---,0.00,VWS V14.01,2013-02-03 02:26:00,
2013-02-02 20:27:00,14.6,9.8,29.97,NNW,328,0.0,5.0,81,0.00,,---,0.00,VWS V14.01,2013-02-03 02:27:00,
2013-02-02 20:30:00,14.6,9.6,29.97,West,268,4.0,4.0,80,0.00,,---,0.00,VWS V14.01,2013-02-03 02:30:00,
2013-02-02 20:31:00,14.4,9.4,29.97,West,278,2.0,6.0,80,0.00,,---,0.00,VWS V14.01,2013-02-03 02:31:00,
2013-02-02 20:32:00,14.4,9.4,29.97,NW,312,4.0,4.0,80,0.00,,---,0.00,VWS V14.01,2013-02-03 02:32:00,
2013-02-02 20:33:00,14.4,9.4,29.97,WNW,287,2.0,4.0,80,0.00,,---,0.00,VWS V14.01,2013-02-03 02:33:00,
2013-02-02 20:36:00,14.4,9.4,29.97,WNW,287,1.0,1.0,80,0.00,,---,0.00,VWS V14.01,2013-02-03 02:36:00,
2013-02-02 20:37:00,14.4,9.4,29.97,WNW,287,1.0,2.0,80,0.00,,---,0.00,VWS V14.01,2013-02-03 02:37:00,
2013-02-02 20:39:00,14.4,9.4,29.97,WNW,287,2.0,2.0,80,0.00,,---,0.00,VWS V14.01,2013-02-03 02:39:00,
2013-02-02 20:42:00,14.4,9.4,29.97,NW,316,1.0,3.0,80,0.00,,---,0.00,VWS V14.01,2013-02-03 02:42:00,
2013-02-02 20:43:00,14.4,9.4,29.97,WNW,300,2.0,2.0,80,0.00,,---,0.00,VWS V14.01,2013-02-03 02:43:00,
2013-02-02 20:44:00,14.4,9.4,29.97,WNW,302,3.0,5.0,80,0.00,,---,0.00,VWS V14.01,2013-02-03 02:44:00,
2013-02-02 20:45:00,14.4,9.4,29.97,NW,320,2.0,3.0,80,0.00,,---,0.00,VWS V14.01,2013-02-03 02:45:00,
2013-02-02 20:47:00,14.4,9.4,29.97,WNW,294,2.0,4.0,80,0.00,,---,0.00,VWS V14.01,2013-02-03 02:47:00,
2013-02-02 20:49:00,14.3,9.3,29.97,WNW,299,3.0,3.0,80,0.00,,---,0.00,VWS V14.01,2013-02-03 02:49:00,
2013-02-02 20:50:00,14.3,9.3,29.97,WNW,299,1.0,3.0,80,0.00,,---,0.00,VWS V14.01,2013-02-03 02:50:00,
2013-02-02 20:51:00,14.3,9.3,29.97,NNW,330,2.0,3.0,80,0.00,,---,0.00,VWS V14.01,2013-02-03 02:51:00,
2013-02-02 20:52:00,14.3,9.3,29.97,NNW,327,2.0,2.0,80,0.00,,---,0.00,VWS V14.01,2013-02-03 02:52:00,
2013-02-02 20:55:00,14.3,9.3,29.97,NNW,328,2.0,2.0,80,0.00,,---,0.00,VWS V14.01,2013-02-03 02:55:00,
2013-02-02 20:56:00,14.3,9.3,29.97,NNW,328,0.0,2.0,80,0.00,,---,0.00,VWS V14.01,2013-02-03 02:56:00,
2013-02-02 20:57:00,14.3,9.3,29.97,WNW,292,2.0,4.0,80,0.00,,---,0.00,VWS V14.01,2013-02-03 02:57:00,
2013-02-02 21:01:00,14.3,9.3,29.96,NNW,328,0.0,2.0,80,0.00,,---,0.00,VWS V14.01,2013-02-03 03:01:00,
2013-02-02 21:02:00,14.3,9.3,29.96,NNW,328,2.0,2.0,80,0.00,,---,0.00,VWS V14.01,2013-02-03 03:02:00,
2013-02-02 21:03:00,14.3,9.3,29.96,WNW,293,1.0,2.0,80,0.00,,---,0.00,VWS V14.01,2013-02-03 03:03:00,
2013-02-02 21:07:00,14.1,9.1,29.96,West,276,1.0,2.0,80,0.00,,---,0.00,VWS V14.01,2013-02-03 03:07:00,
2013-02-02 21:08:00,14.1,9.1,29.96,WNW,284,0.0,1.0,80,0.00,,---,0.00,VWS V14.01,2013-02-03 03:08:00,
2013-02-02 21:11:00,14.1,9.1,29.96,WNW,291,0.0,1.0,80,0.00,,---,0.00,VWS V14.01,2013-02-03 03:11:00,
2013-02-02 21:13:00,14.1,9.1,29.96,WNW,295,1.0,2.0,80,0.00,,---,0.00,VWS V14.01,2013-02-03 03:13:00,
2013-02-02 21:15:00,14.1,9.1,29.96,NW,316,1.0,2.0,80,0.00,,---,0.00,VWS V14.01,2013-02-03 03:15:00,
2013-02-02 21:16:00,14.0,9.0,29.96,West,260,1.0,2.0,80,0.00,,---,0.00,VWS V14.01,2013-02-03 03:16:00,
2013-02-02 21:18:00,14.0,9.0,29.96,WNW,298,1.0,2.0,80,0.00,,---,0.00,VWS V14.01,2013-02-03 03:18:00,
2013-02-02 21:22:00,14.0,8.7,29.96,NW,311,1.0,2.0,79,0.00,,---,0.00,VWS V14.01,2013-02-03 03:22:00,
2013-02-02 21:23:00,14.0,8.7,29.96,WNW,288,2.0,4.0,79,0.00,,---,0.00,VWS V14.01,2013-02-03 03:23:00,
2013-02-02 21:24:00,14.0,8.7,29.96,WNW,299,1.0,2.0,79,0.00,,---,0.00,VWS V14.01,2013-02-03 03:24:00,
2013-02-02 21:27:00,14.0,8.7,29.96,WNW,302,0.0,0.0,79,0.00,,---,0.00,VWS V14.01,2013-02-03 03:27:00,
2013-02-02 21:28:00,14.0,8.7,29.96,WNW,302,0.0,0.0,79,0.00,,---,0.00,VWS V14.01,2013-02-03 03:28:00,
2013-02-02 21:31:00,13.8,8.5,29.96,NW,317,1.0,1.0,79,0.00,,---,0.00,VWS V14.01,2013-02-03 03:31:00,
2013-02-02 21:32:00,13.8,8.5,29.96,NW,317,1.0,1.0,79,0.00,,---,0.00,VWS V14.01,2013-02-03 03:32:00,
2013-02-02 21:33:00,13.8,8.5,29.96,NW,326,1.0,2.0,79,0.00,,---,0.00,VWS V14.01,2013-02-03 03:33:00,
2013-02-02 21:36:00,13.8,8.5,29.96,West,264,1.0,1.0,79,0.00,,---,0.00,VWS V14.01,2013-02-03 03:36:00,
2013-02-02 21:38:00,13.8,8.5,29.96,NW,326,1.0,2.0,79,0.00,,---,0.00,VWS V14.01,2013-02-03 03:38:00,
2013-02-02 21:39:00,13.8,8.5,29.96,NW,326,1.0,2.0,79,0.00,,---,0.00,VWS V14.01,2013-02-03 03:39:00,
2013-02-02 21:41:00,13.8,8.5,29.96,NW,326,1.0,1.0,79,0.00,,---,0.00,VWS V14.01,2013-02-03 03:41:00,
2013-02-02 21:42:00,13.8,8.5,29.96,NW,319,1.0,2.0,79,0.00,,---,0.00,VWS V14.01,2013-02-03 03:42:00,
2013-02-02 21:45:00,13.8,8.5,29.96,NW,319,0.0,1.0,79,0.00,,---,0.00,VWS V14.01,2013-02-03 03:45:00,
2013-02-02 21:48:00,13.8,8.5,29.96,NW,319,0.0,1.0,79,0.00,,---,0.00,VWS V14.01,2013-02-03 03:48:00,
2013-02-02 21:49:00,13.8,8.5,29.96,NW,319,0.0,1.0,79,0.00,,---,0.00,VWS V14.01,2013-02-03 03:49:00,
2013-02-02 21:51:00,13.8,8.5,29.96,NW,312,0.0,1.0,79,0.00,,---,0.00,VWS V14.01,2013-02-03 03:51:00,
2013-02-02 21:53:00,13.6,8.3,29.96,WSW,248,0.0,1.0,79,0.00,,---,0.00,VWS V14.01,2013-02-03 03:53:00,
2013-02-02 21:54:00,13.6,8.3,29.96,WNW,300,1.0,3.0,79,0.00,,---,0.00,VWS V14.01,2013-02-03 03:54:00,
2013-02-02 21:55:00,13.6,8.3,29.96,NNW,329,0.0,2.0,79,0.00,,---,0.00,VWS V14.01,2013-02-03 03:55:00,
2013-02-02 21:58:00,13.6,8.3,29.96,WNW,288,2.0,2.0,79,0.00,,---,0.00,VWS V14.01,2013-02-03 03:58:00,
2013-02-02 22:00:00,13.5,8.2,29.95,North,352,3.0,3.0,79,0.00,,---,0.00,VWS V14.01,2013-02-03 04:00:00,
2013-02-02 22:02:00,13.5,8.2,29.95,NW,309,1.0,2.0,79,0.00,,---,0.00,VWS V14.01,2013-02-03 04:02:00,
2013-02-02 22:03:00,13.5,8.2,29.95,NW,308,1.0,2.0,79,0.00,,---,0.00,VWS V14.01,2013-02-03 04:03:00,
2013-02-02 22:06:00,13.5,8.2,29.95,WNW,293,1.0,2.0,79,0.00,,---,0.00,VWS V14.01,2013-02-03 04:06:00,
2013-02-02 22:07:00,13.5,8.2,29.95,West,274,3.0,3.0,79,0.00,,---,0.00,VWS V14.01,2013-02-03 04:07:00,
2013-02-02 22:10:00,13.5,8.2,29.95,WSW,257,2.0,2.0,79,0.00,,---,0.00,VWS V14.01,2013-02-03 04:10:00,
2013-02-02 22:11:00,13.5,8.2,29.95,WSW,257,2.0,2.0,79,0.00,,---,0.00,VWS V14.01,2013-02-03 04:11:00,
2013-02-02 22:13:00,13.5,8.2,29.95,West,266,3.0,3.0,79,0.00,,---,0.00,VWS V14.01,2013-02-03 04:13:00,
2013-02-02 22:15:00,13.3,8.0,29.95,WNW,294,1.0,1.0,79,0.00,,---,0.00,VWS V14.01,2013-02-03 04:15:00,
2013-02-02 22:17:00,13.3,8.0,29.95,NW,309,0.0,2.0,79,0.00,,---,0.00,VWS V14.01,2013-02-03 04:17:00,
2013-02-02 22:18:00,13.3,8.0,29.95,NW,316,0.0,1.0,79,0.00,,---,0.00,VWS V14.01,2013-02-03 04:18:00,
2013-02-02 22:19:00,13.3,8.0,29.95,NW,316,1.0,1.0,79,0.00,,---,0.00,VWS V14.01,2013-02-03 04:19:00,
2013-02-02 22:22:00,13.3,7.7,29.95,WSW,242,0.0,2.0,78,0.00,,---,0.00,VWS V14.01,2013-02-03 04:22:00,
2013-02-02 22:23:00,13.3,7.7,29.95,WSW,242,0.0,0.0,78,0.00,,---,0.00,VWS V14.01,2013-02-03 04:23:00,
2013-02-02 22:24:00,13.1,7.5,29.95,WSW,242,0.0,1.0,78,0.00,,---,0.00,VWS V14.01,2013-02-03 04:24:00,
2013-02-02 22:29:00,12.9,7.3,29.94,West,264,1.0,1.0,78,0.00,,---,0.00,VWS V14.01,2013-02-03 04:29:00,
2013-02-02 22:30:00,12.9,7.3,29.94,West,264,0.0,0.0,78,0.00,,---,0.00,VWS V14.01,2013-02-03 04:30:00,
2013-02-02 22:31:00,12.9,7.3,29.94,West,264,0.0,1.0,78,0.00,,---,0.00,VWS V14.01,2013-02-03 04:31:00,
2013-02-02 22:35:00,12.8,7.2,29.94,West,264,0.0,1.0,78,0.00,,---,0.00,VWS V14.01,2013-02-03 04:35:00,
2013-02-02 22:36:00,12.8,7.2,29.94,West,264,0.0,1.0,78,0.00,,---,0.00,VWS V14.01,2013-02-03 04:36:00,
2013-02-02 22:37:00,12.8,7.2,29.94,West,264,0.0,0.0,78,0.00,,---,0.00,VWS V14.01,2013-02-03 04:37:00,
2013-02-02 22:40:00,12.6,7.1,29.94,SW,217,0.0,1.0,78,0.00,,---,0.00,VWS V14.01,2013-02-03 04:40:00,
2013-02-02 22:41:00,12.6,7.1,29.94,SW,217,0.0,1.0,78,0.00,,---,0.00,VWS V14.01,2013-02-03 04:41:00,
2013-02-02 22:42:00,12.6,7.1,29.94,WSW,238,0.0,2.0,78,0.00,,---,0.00,VWS V14.01,2013-02-03 04:42:00,
2013-02-02 22:45:00,12.6,7.1,29.94,WSW,255,2.0,3.0,78,0.00,,---,0.00,VWS V14.01,2013-02-03 04:45:00,
2013-02-02 22:46:00,12.6,7.1,29.94,West,277,2.0,2.0,78,0.00,,---,0.00,VWS V14.01,2013-02-03 04:46:00,
2013-02-02 22:48:00,12.4,6.6,29.94,WNW,290,1.0,2.0,77,0.00,,---,0.00,VWS V14.01,2013-02-03 04:48:00,
2013-02-02 22:49:00,12.4,6.6,29.94,West,274,1.0,1.0,77,0.00,,---,0.00,VWS V14.01,2013-02-03 04:49:00,
2013-02-02 22:50:00,12.4,6.6,29.94,West,264,1.0,1.0,77,0.00,,---,0.00,VWS V14.01,2013-02-03 04:50:00,
2013-02-02 22:52:00,12.4,6.6,29.94,West,271,0.0,2.0,77,0.00,,---,0.00,VWS V14.01,2013-02-03 04:52:00,
2013-02-02 22:53:00,12.4,6.6,29.94,West,260,1.0,3.0,77,0.00,,---,0.00,VWS V14.01,2013-02-03 04:53:00,
2013-02-02 22:54:00,12.4,6.6,29.94,West,261,0.0,1.0,77,0.00,,---,0.00,VWS V14.01,2013-02-03 04:54:00,
2013-02-02 22:56:00,12.3,6.5,29.94,West,260,0.0,0.0,77,0.00,,---,0.00,VWS V14.01,2013-02-03 04:56:00,
2013-02-02 22:58:00,12.3,6.5,29.94,West,260,1.0,1.0,77,0.00,,---,0.00,VWS V14.01,2013-02-03 04:58:00,
2013-02-02 22:59:00,12.3,6.5,29.94,West,260,1.0,1.0,77,0.00,,---,0.00,VWS V14.01,2013-02-03 04:59:00,
2013-02-02 23:00:00,12.3,6.5,29.94,West,260,1.0,1.0,77,0.00,,---,0.00,VWS V14.01,2013-02-03 05:00:00,
2013-02-02 23:01:00,12.3,6.5,29.94,West,260,0.0,0.0,77,0.00,,---,0.00,VWS V14.01,2013-02-03 05:01:00,
2013-02-02 23:02:00,12.3,6.5,29.94,West,260,1.0,1.0,77,0.00,,---,0.00,VWS V14.01,2013-02-03 05:02:00,
2013-02-02 23:06:00,12.1,6.3,29.94,WSW,245,1.0,1.0,77,0.00,,---,0.00,VWS V14.01,2013-02-03 05:06:00,
2013-02-02 23:07:00,12.1,6.3,29.94,WSW,249,0.0,2.0,77,0.00,,---,0.00,VWS V14.01,2013-02-03 05:07:00,
2013-02-02 23:08:00,12.1,6.3,29.94,WSW,249,0.0,0.0,77,0.00,,---,0.00,VWS V14.01,2013-02-03 05:08:00,
2013-02-02 23:11:00,12.1,6.3,29.94,West,266,0.0,1.0,77,0.00,,---,0.00,VWS V14.01,2013-02-03 05:11:00,
2013-02-02 23:12:00,12.1,6.3,29.94,West,266,0.0,1.0,77,0.00,,---,0.00,VWS V14.01,2013-02-03 05:12:00,
2013-02-02 23:13:00,12.1,6.3,29.94,West,266,0.0,0.0,77,0.00,,---,0.00,VWS V14.01,2013-02-03 05:13:00,
2013-02-02 23:14:00,12.1,6.6,29.94,West,266,0.0,0.0,78,0.00,,---,0.00,VWS V14.01,2013-02-03 05:14:00,
2013-02-02 23:17:00,12.1,6.6,29.94,SSW,212,0.0,1.0,78,0.00,,---,0.00,VWS V14.01,2013-02-03 05:17:00,
2013-02-02 23:18:00,12.1,6.6,29.94,SSW,213,2.0,2.0,78,0.00,,---,0.00,VWS V14.01,2013-02-03 05:18:00,
2013-02-02 23:19:00,12.1,6.6,29.94,SSW,213,0.0,1.0,78,0.00,,---,0.00,VWS V14.01,2013-02-03 05:19:00,
2013-02-02 23:23:00,12.1,6.6,29.94,WNW,299,1.0,2.0,78,0.00,,---,0.00,VWS V14.01,2013-02-03 05:23:00,
2013-02-02 23:24:00,12.1,6.6,29.94,WNW,298,0.0,1.0,78,0.00,,---,0.00,VWS V14.01,2013-02-03 05:24:00,
2013-02-02 23:25:00,11.9,6.4,29.94,WSW,238,0.0,2.0,78,0.00,,---,0.00,VWS V14.01,2013-02-03 05:25:00,
2013-02-02 23:28:00,11.9,6.4,29.94,WSW,238,0.0,0.0,78,0.00,,---,0.00,VWS V14.01,2013-02-03 05:28:00,
2013-02-02 23:29:00,11.9,6.4,29.93,WSW,256,1.0,2.0,78,0.00,,---,0.00,VWS V14.01,2013-02-03 05:29:00,
2013-02-02 23:30:00,11.9,6.4,29.93,WSW,256,0.0,1.0,78,0.00,,---,0.00,VWS V14.01,2013-02-03 05:30:00,
2013-02-02 23:31:00,11.9,6.4,29.93,WSW,256,0.0,0.0,78,0.00,,---,0.00,VWS V14.01,2013-02-03 05:31:00,
2013-02-02 23:34:00,11.9,6.4,29.93,WSW,256,1.0,1.0,78,0.00,,---,0.00,VWS V14.01,2013-02-03 05:34:00,
2013-02-02 23:35:00,11.9,6.4,29.93,WSW,256,0.0,1.0,78,0.00,,---,0.00,VWS V14.01,2013-02-03 05:35:00,
2013-02-02 23:36:00,11.9,6.4,29.93,WSW,256,0.0,0.0,78,0.00,,---,0.00,VWS V14.01,2013-02-03 05:36:00,
2013-02-02 23:37:00,11.9,6.4,29.93,WSW,256,0.0,0.0,78,0.00,,---,0.00,VWS V14.01,2013-02-03 05:37:00,
2013-02-02 23:40:00,11.9,6.4,29.93,WSW,256,0.0,2.0,78,0.00,,---,0.00,VWS V14.01,2013-02-03 05:40:00,
2013-02-02 23:42:00,11.9,6.4,29.93,West,265,0.0,0.0,78,0.00,,---,0.00,VWS V14.01,2013-02-03 05:42:00,
2013-02-02 23:43:00,11.9,6.4,29.93,West,265,0.0,0.0,78,0.00,,---,0.00,VWS V14.01,2013-02-03 05:43:00,
2013-02-02 23:45:00,11.9,6.4,29.94,SW,219,0.0,1.0,78,0.00,,---,0.00,VWS V14.01,2013-02-03 05:45:00,
2013-02-02 23:47:00,11.9,6.4,29.94,WSW,242,1.0,2.0,78,0.00,,---,0.00,VWS V14.01,2013-02-03 05:47:00,
2013-02-02 23:49:00,11.9,6.4,29.94,WSW,245,2.0,2.0,78,0.00,,---,0.00,VWS V14.01,2013-02-03 05:49:00,
2013-02-02 23:50:00,11.9,6.4,29.94,WSW,243,0.0,2.0,78,0.00,,---,0.00,VWS V14.01,2013-02-03 05:50:00,
2013-02-02 23:52:00,11.9,6.4,29.94,WSW,243,0.0,0.0,78,0.00,,---,0.00,VWS V14.01,2013-02-03 05:52:00,
2013-02-02 23:53:00,11.9,6.4,29.94,WSW,243,0.0,0.0,78,0.00,,---,0.00,VWS V14.01,2013-02-03 05:53:00,
2013-02-02 23:55:00,11.9,6.4,29.94,WSW,243,0.0,0.0,78,0.00,,---,0.00,VWS V14.01,2013-02-03 05:55:00,
2013-02-02 23:56:00,11.9,6.4,29.94,WSW,243,0.0,0.0,78,0.00,,---,0.00,VWS V14.01,2013-02-03 05:56:00,
2013-02-02 23:59:00,11.9,6.4,29.93,WSW,243,0.0,1.0,78,0.00,,---,0.00,VWS V14.01,2013-02-03 05:59:00,